Wetterdaten: Sonntag, 02.02.2020
Datum Zeit Temp. Aussen Temp. o. S. Temp +5cm Feuchte Auss Luftdruck Regen Sonnenschein Regendauer Solar Windben Empfang
02.02.2020 00:00 7,9 C 7,2 C 6,7 C 88 % 1010,6 hPa 0,0 l/m 0 min 0 min 0 W/m 22,5 km/h (4 Bft) 100,00 %
02.02.2020 00:02 7,9 C 7,2 C 6,7 C 88 % 1010,5 hPa 0,0 l/m 0 min 0 min 0 W/m 16,1 km/h (3 Bft) 97,37 %
02.02.2020 00:04 7,9 C 7,2 C 6,7 C 88 % 1010,6 hPa 0,0 l/m 0 min 0 min 0 W/m 25,7 km/h (4 Bft) 100,00 %
02.02.2020 00:08 7,9 C 7,2 C 6,7 C 88 % 1010,6 hPa 0,0 l/m 0 min 0 min 0 W/m 38,6 km/h (5 Bft) 98,94 %
02.02.2020 00:10 7,9 C 7,2 C 6,7 C 88 % 1010,6 hPa 0,0 l/m 0 min 0 min 0 W/m 22,5 km/h (4 Bft) 100,00 %
02.02.2020 00:12 7,9 C 7,2 C 6,7 C 89 % 1010,7 hPa 0,0 l/m 0 min 0 min 0 W/m 25,7 km/h (4 Bft) 100,00 %
02.02.2020 00:14 7,9 C 7,2 C 6,7 C 89 % 1010,7 hPa 0,0 l/m 0 min 0 min 0 W/m 25,7 km/h (4 Bft) 100,00 %
02.02.2020 00:16 7,9 C 7,2 C 6,7 C 89 % 1010,7 hPa 0,0 l/m 0 min 0 min 0 W/m 12,9 km/h (3 Bft) 100,00 %
02.02.2020 00:18 7,9 C 7,2 C 6,7 C 89 % 1010,8 hPa 0,0 l/m 0 min 0 min 0 W/m 22,5 km/h (4 Bft) 100,00 %
02.02.2020 00:20 8,0 C 7,2 C 6,7 C 89 % 1010,8 hPa 0,0 l/m 0 min 0 min 0 W/m 19,3 km/h (3 Bft) 100,00 %
02.02.2020 00:22 8,0 C 7,2 C 6,7 C 89 % 1010,7 hPa 0,0 l/m 0 min 0 min 0 W/m 16,1 km/h (3 Bft) 100,00 %
02.02.2020 00:24 8,0 C 7,2 C 6,7 C 89 % 1010,7 hPa 0,0 l/m 0 min 0 min 0 W/m 16,1 km/h (3 Bft) 100,00 %
02.02.2020 00:26 8,0 C 7,2 C 6,7 C 89 % 1010,7 hPa 0,0 l/m 0 min 0 min 0 W/m 19,3 km/h (3 Bft) 100,00 %
02.02.2020 00:28 8,0 C 7,2 C 6,7 C 89 % 1010,7 hPa 0,0 l/m 0 min 0 min 0 W/m 22,5 km/h (4 Bft) 97,87 %
02.02.2020 00:30 8,0 C 7,2 C 6,7 C 89 % 1010,8 hPa 0,0 l/m 0 min 0 min 0 W/m 22,5 km/h (4 Bft) 95,74 %
02.02.2020 00:32 8,0 C 7,2 C 6,7 C 88 % 1010,8 hPa 0,0 l/m 0 min 0 min 0 W/m 25,7 km/h (4 Bft) 97,83 %
02.02.2020 00:34 8,0 C 7,2 C 6,7 C 88 % 1010,6 hPa 0,0 l/m 0 min 0 min 0 W/m 29,0 km/h (5 Bft) 97,87 %
02.02.2020 00:36 8,1 C 7,2 C 6,7 C 88 % 1010,7 hPa 0,0 l/m 0 min 0 min 0 W/m 22,5 km/h (4 Bft) 97,87 %
02.02.2020 00:38 8,0 C 7,2 C 6,7 C 88 % 1010,8 hPa 0,0 l/m 0 min 0 min 0 W/m 22,5 km/h (4 Bft) 95,74 %
02.02.2020 00:40 8,0 C 7,2 C 6,7 C 88 % 1010,8 hPa 0,0 l/m 0 min 0 min 0 W/m 29,0 km/h (5 Bft) 97,87 %
02.02.2020 00:42 8,0 C 7,2 C 6,7 C 88 % 1010,8 hPa 0,0 l/m 0 min 0 min 0 W/m 29,0 km/h (5 Bft) 97,87 %
02.02.2020 00:44 8,1 C 7,2 C 6,7 C 88 % 1010,9 hPa 0,0 l/m 0 min 0 min 0 W/m 16,1 km/h (3 Bft) 97,83 %
02.02.2020 00:46 8,1 C 7,2 C 6,7 C 88 % 1010,8 hPa 0,0 l/m 0 min 0 min 0 W/m 22,5 km/h (4 Bft) 97,87 %
02.02.2020 00:48 8,1 C 7,2 C 6,7 C 88 % 1010,8 hPa 0,0 l/m 0 min 0 min 0 W/m 22,5 km/h (4 Bft) 97,87 %
02.02.2020 00:50 8,1 C 7,2 C 6,7 C 88 % 1010,9 hPa 0,0 l/m 0 min 0 min 0 W/m 22,5 km/h (4 Bft) 97,87 %
02.02.2020 00:52 8,1 C 7,8 C 7,2 C 88 % 1011,0 hPa 0,0 l/m 0 min 0 min 0 W/m 35,4 km/h (5 Bft) 97,87 %
02.02.2020 00:54 8,1 C 7,8 C 7,2 C 88 % 1011,0 hPa 0,0 l/m 0 min 0 min 0 W/m 35,4 km/h (5 Bft) 97,87 %
02.02.2020 00:56 8,1 C 7,8 C 7,2 C 88 % 1011,0 hPa 0,0 l/m 0 min 0 min 0 W/m 19,3 km/h (3 Bft) 95,65 %
02.02.2020 00:58 8,1 C 7,8 C 7,2 C 88 % 1011,1 hPa 0,0 l/m 0 min 0 min 0 W/m 19,3 km/h (3 Bft) 97,87 %
02.02.2020 01:00 8,2 C 7,8 C 7,2 C 88 % 1011,1 hPa 0,0 l/m 0 min 0 min 0 W/m 19,3 km/h (3 Bft) 93,62 %
02.02.2020 01:02 8,2 C 7,8 C 7,2 C 88 % 1011,0 hPa 0,0 l/m 0 min 0 min 0 W/m 29,0 km/h (5 Bft) 93,62 %
02.02.2020 01:04 8,2 C 7,8 C 7,2 C 88 % 1011,2 hPa 0,0 l/m 0 min 0 min 0 W/m 16,1 km/h (3 Bft) 95,74 %
02.02.2020 01:06 8,2 C 7,8 C 7,2 C 88 % 1011,1 hPa 0,0 l/m 0 min 0 min 0 W/m 22,5 km/h (4 Bft) 95,74 %
02.02.2020 01:08 8,3 C 7,8 C 7,2 C 88 % 1011,1 hPa 0,0 l/m 0 min 0 min 0 W/m 22,5 km/h (4 Bft) 95,65 %
02.02.2020 01:10 8,3 C 7,8 C 7,2 C 88 % 1011,1 hPa 0,0 l/m 0 min 0 min 0 W/m 19,3 km/h (3 Bft) 93,62 %
02.02.2020 01:12 8,3 C 7,8 C 7,2 C 88 % 1011,1 hPa 0,0 l/m 0 min 0 min 0 W/m 12,9 km/h (3 Bft) 95,74 %
02.02.2020 01:14 8,3 C 7,8 C 7,2 C 88 % 1011,1 hPa 0,0 l/m 0 min 0 min 0 W/m 38,6 km/h (5 Bft) 97,87 %
02.02.2020 01:16 8,3 C 7,8 C 7,2 C 88 % 1011,1 hPa 0,0 l/m 0 min 0 min 0 W/m 29,0 km/h (5 Bft) 93,62 %
02.02.2020 01:18 8,3 C 7,8 C 7,2 C 88 % 1011,1 hPa 0,0 l/m 0 min 0 min 0 W/m 25,7 km/h (4 Bft) 97,87 %
02.02.2020 01:20 8,3 C 7,8 C 7,2 C 88 % 1011,2 hPa 0,0 l/m 0 min 0 min 0 W/m 22,5 km/h (4 Bft) 95,65 %
02.02.2020 01:22 8,3 C 7,8 C 7,2 C 88 % 1011,2 hPa 0,0 l/m 0 min 0 min 0 W/m 12,9 km/h (3 Bft) 97,87 %
02.02.2020 01:24 8,3 C 7,2 C 7,2 C 88 % 1011,2 hPa 0,0 l/m 0 min 0 min 0 W/m 22,5 km/h (4 Bft) 97,87 %
02.02.2020 01:26 8,3 C 7,2 C 7,2 C 88 % 1011,3 hPa 0,0 l/m 0 min 0 min 0 W/m 35,4 km/h (5 Bft) 97,87 %
02.02.2020 01:28 8,3 C 7,2 C 6,7 C 88 % 1011,3 hPa 0,0 l/m 0 min 0 min 0 W/m 22,5 km/h (4 Bft) 95,74 %
02.02.2020 01:30 8,3 C 7,2 C 6,7 C 88 % 1011,2 hPa 0,0 l/m 0 min 0 min 0 W/m 16,1 km/h (3 Bft) 95,65 %
02.02.2020 01:32 8,3 C 7,2 C 6,7 C 88 % 1011,2 hPa 0,0 l/m 0 min 0 min 0 W/m 25,7 km/h (4 Bft) 97,87 %
02.02.2020 01:34 8,2 C 7,2 C 6,7 C 88 % 1011,2 hPa 0,0 l/m 0 min 0 min 0 W/m 25,7 km/h (4 Bft) 95,74 %
02.02.2020 01:36 8,2 C 7,2 C 6,7 C 88 % 1011,2 hPa 0,0 l/m 0 min 0 min 0 W/m 19,3 km/h (3 Bft) 97,87 %
02.02.2020 01:38 8,2 C 7,2 C 6,7 C 88 % 1011,2 hPa 0,0 l/m 0 min 0 min 0 W/m 19,3 km/h (3 Bft) 95,74 %
02.02.2020 01:40 8,2 C 7,2 C 6,7 C 88 % 1011,2 hPa 0,0 l/m 0 min 0 min 0 W/m 12,9 km/h (3 Bft) 97,87 %
02.02.2020 01:42 8,2 C 7,2 C 6,7 C 88 % 1011,2 hPa 0,0 l/m 0 min 0 min 0 W/m 25,7 km/h (4 Bft) 97,83 %
02.02.2020 01:44 8,2 C 7,8 C 6,7 C 88 % 1011,1 hPa 0,0 l/m 0 min 0 min 0 W/m 19,3 km/h (3 Bft) 95,74 %
02.02.2020 01:46 8,2 C 7,8 C 6,7 C 88 % 1011,1 hPa 0,0 l/m 0 min 0 min 0 W/m 19,3 km/h (3 Bft) 95,74 %
02.02.2020 01:48 8,2 C 7,8 C 7,2 C 88 % 1011,1 hPa 0,0 l/m 0 min 0 min 0 W/m 22,5 km/h (4 Bft) 93,62 %
02.02.2020 01:50 8,2 C 7,8 C 7,2 C 88 % 1011,1 hPa 0,0 l/m 0 min 0 min 0 W/m 16,1 km/h (3 Bft) 93,62 %
02.02.2020 01:52 8,2 C 7,8 C 7,2 C 88 % 1011,3 hPa 0,0 l/m 0 min 0 min 0 W/m 12,9 km/h (3 Bft) 95,74 %
02.02.2020 01:54 8,2 C 7,8 C 7,2 C 88 % 1011,2 hPa 0,0 l/m 0 min 0 min 0 W/m 22,5 km/h (4 Bft) 97,83 %
02.02.2020 01:56 8,2 C 7,8 C 7,2 C 88 % 1011,2 hPa 0,0 l/m 0 min 0 min 0 W/m 19,3 km/h (3 Bft) 93,62 %
02.02.2020 01:58 8,3 C 7,8 C 7,2 C 88 % 1011,5 hPa 0,0 l/m 0 min 0 min 0 W/m 29,0 km/h (5 Bft) 97,87 %
02.02.2020 02:00 8,3 C 7,8 C 7,2 C 88 % 1011,3 hPa 0,0 l/m 0 min 0 min 0 W/m 16,1 km/h (3 Bft) 97,87 %
02.02.2020 02:02 8,3 C 7,8 C 7,2 C 88 % 1011,5 hPa 0,0 l/m 0 min 0 min 0 W/m 22,5 km/h (4 Bft) 97,87 %
02.02.2020 02:04 8,3 C 7,8 C 7,2 C 88 % 1011,4 hPa 0,0 l/m 0 min 0 min 0 W/m 16,1 km/h (3 Bft) 97,87 %
02.02.2020 02:06 8,3 C 7,8 C 7,2 C 88 % 1011,5 hPa 0,0 l/m 0 min 0 min 0 W/m 16,1 km/h (3 Bft) 97,83 %
02.02.2020 02:08 8,3 C 7,8 C 7,2 C 88 % 1011,5 hPa 0,0 l/m 0 min 0 min 0 W/m 22,5 km/h (4 Bft) 97,87 %
02.02.2020 02:10 8,3 C 7,8 C 7,2 C 88 % 1011,6 hPa 0,0 l/m 0 min 0 min 0 W/m 22,5 km/h (4 Bft) 97,87 %
02.02.2020 02:12 8,3 C 7,8 C 7,2 C 88 % 1011,5 hPa 0,0 l/m 0 min 0 min 0 W/m 22,5 km/h (4 Bft) 97,87 %
02.02.2020 02:14 8,3 C 7,8 C 7,2 C 88 % 1011,5 hPa 0,0 l/m 0 min 0 min 0 W/m 19,3 km/h (3 Bft) 97,87 %
02.02.2020 02:16 8,3 C 7,8 C 7,2 C 88 % 1011,6 hPa 0,0 l/m 0 min 0 min 0 W/m 19,3 km/h (3 Bft) 97,87 %
02.02.2020 02:18 8,4 C 7,8 C 7,2 C 88 % 1011,6 hPa 0,0 l/m 0 min 0 min 0 W/m 25,7 km/h (4 Bft) 97,83 %
02.02.2020 02:20 8,4 C 7,8 C 7,2 C 88 % 1011,6 hPa 0,0 l/m 0 min 0 min 0 W/m 19,3 km/h (3 Bft) 97,87 %
02.02.2020 02:22 8,4 C 7,8 C 7,2 C 88 % 1011,6 hPa 0,0 l/m 0 min 0 min 0 W/m 22,5 km/h (4 Bft) 95,74 %
02.02.2020 02:24 8,4 C 7,8 C 7,2 C 88 % 1011,6 hPa 0,0 l/m 0 min 0 min 0 W/m 16,1 km/h (3 Bft) 97,87 %
02.02.2020 02:26 8,4 C 7,8 C 7,2 C 88 % 1011,6 hPa 0,0 l/m 0 min 0 min 0 W/m 19,3 km/h (3 Bft) 97,87 %
02.02.2020 02:28 8,4 C 7,8 C 7,2 C 88 % 1011,5 hPa 0,0 l/m 0 min 0 min 0 W/m 16,1 km/h (3 Bft) 97,87 %
02.02.2020 02:30 8,4 C 7,8 C 7,2 C 87 % 1011,6 hPa 0,0 l/m 0 min 0 min 0 W/m 16,1 km/h (3 Bft) 100,00 %
02.02.2020 02:32 8,4 C 7,8 C 7,2 C 87 % 1011,5 hPa 0,0 l/m 0 min 0 min 0 W/m 22,5 km/h (4 Bft) 100,00 %
02.02.2020 02:34 8,4 C 7,8 C 7,2 C 88 % 1011,6 hPa 0,0 l/m 0 min 0 min 0 W/m 19,3 km/h (3 Bft) 100,00 %
02.02.2020 02:36 8,4 C 7,8 C 7,2 C 87 % 1011,6 hPa 0,0 l/m 0 min 0 min 0 W/m 19,3 km/h (3 Bft) 100,00 %
02.02.2020 02:38 8,4 C 7,8 C 7,2 C 87 % 1011,6 hPa 0,0 l/m 0 min 0 min 0 W/m 19,3 km/h (3 Bft) 100,00 %
02.02.2020 02:40 8,4 C 7,8 C 7,2 C 87 % 1011,7 hPa 0,0 l/m 0 min 0 min 0 W/m 19,3 km/h (3 Bft) 100,00 %
02.02.2020 02:42 8,4 C 7,8 C 7,2 C 87 % 1011,6 hPa 0,0 l/m 0 min 0 min 0 W/m 19,3 km/h (3 Bft) 100,00 %
02.02.2020 02:44 8,4 C 7,8 C 7,2 C 87 % 1011,6 hPa 0,0 l/m 0 min 0 min 0 W/m 16,1 km/h (3 Bft) 100,00 %
02.02.2020 02:46 8,4 C 7,8 C 7,2 C 87 % 1011,7 hPa 0,0 l/m 0 min 0 min 0 W/m 19,3 km/h (3 Bft) 97,87 %
02.02.2020 02:48 8,4 C 7,8 C 7,2 C 87 % 1011,7 hPa 0,0 l/m 0 min 0 min 0 W/m 16,1 km/h (3 Bft) 100,00 %
02.02.2020 02:50 8,4 C 7,8 C 7,2 C 87 % 1011,8 hPa 0,0 l/m 0 min 0 min 0 W/m 16,1 km/h (3 Bft) 100,00 %
02.02.2020 02:52 8,4 C 7,8 C 7,2 C 87 % 1011,8 hPa 0,0 l/m 0 min 0 min 0 W/m 12,9 km/h (3 Bft) 55,56 %
02.02.2020 02:54 8,4 C 7,8 C 7,2 C 87 % 1011,8 hPa 0,0 l/m 0 min 0 min 0 W/m 22,5 km/h (4 Bft) 100,00 %
02.02.2020 02:56 8,4 C 7,8 C 7,2 C 87 % 1011,8 hPa 0,0 l/m 0 min 0 min 0 W/m 25,7 km/h (4 Bft) 97,87 %
02.02.2020 02:58 8,4 C 7,8 C 7,2 C 87 % 1011,8 hPa 0,0 l/m 0 min 0 min 0 W/m 16,1 km/h (3 Bft) 100,00 %
02.02.2020 03:00 8,4 C 7,8 C 7,2 C 87 % 1011,9 hPa 0,0 l/m 0 min 0 min 0 W/m 25,7 km/h (4 Bft) 100,00 %
02.02.2020 03:02 8,4 C 7,8 C 7,2 C 88 % 1012,0 hPa 0,0 l/m 0 min 0 min 0 W/m 22,5 km/h (4 Bft) 100,00 %
02.02.2020 03:04 8,3 C 7,8 C 7,2 C 87 % 1011,9 hPa 0,0 l/m 0 min 0 min 0 W/m 19,3 km/h (3 Bft) 97,83 %
02.02.2020 03:06 8,3 C 7,8 C 7,2 C 88 % 1012,0 hPa 0,0 l/m 0 min 0 min 0 W/m 16,1 km/h (3 Bft) 97,87 %
02.02.2020 03:08 8,3 C 7,8 C 7,2 C 88 % 1011,9 hPa 0,0 l/m 0 min 0 min 0 W/m 16,1 km/h (3 Bft) 97,87 %
02.02.2020 03:10 8,3 C 7,8 C 7,2 C 88 % 1011,9 hPa 0,0 l/m 0 min 0 min 0 W/m 25,7 km/h (4 Bft) 97,87 %
02.02.2020 03:12 8,3 C 7,8 C 7,2 C 88 % 1011,8 hPa 0,0 l/m 0 min 0 min 0 W/m 29,0 km/h (5 Bft) 97,87 %
02.02.2020 03:14 8,3 C 7,8 C 7,2 C 88 % 1011,9 hPa 0,0 l/m 0 min 0 min 0 W/m 19,3 km/h (3 Bft) 97,87 %
02.02.2020 03:16 8,3 C 7,8 C 7,2 C 88 % 1011,9 hPa 0,0 l/m 0 min 0 min 0 W/m 16,1 km/h (3 Bft) 95,65 %
02.02.2020 03:18 8,3 C 7,8 C 7,2 C 88 % 1011,8 hPa 0,0 l/m 0 min 0 min 0 W/m 22,5 km/h (4 Bft) 97,87 %
02.02.2020 03:20 8,3 C 7,8 C 7,2 C 88 % 1011,8 hPa 0,0 l/m 0 min 0 min 0 W/m 16,1 km/h (3 Bft) 93,62 %
02.02.2020 03:22 8,3 C 7,8 C 7,2 C 88 % 1011,9 hPa 0,0 l/m 0 min 0 min 0 W/m 19,3 km/h (3 Bft) 97,87 %
02.02.2020 03:24 8,3 C 7,8 C 7,2 C 88 % 1011,8 hPa 0,0 l/m 0 min 0 min 0 W/m 22,5 km/h (4 Bft) 97,87 %
02.02.2020 03:26 8,3 C 7,8 C 7,2 C 88 % 1011,8 hPa 0,0 l/m 0 min 0 min 0 W/m 16,1 km/h (3 Bft) 97,87 %
02.02.2020 03:28 8,3 C 7,2 C 7,2 C 88 % 1011,8 hPa 0,0 l/m 0 min 0 min 0 W/m 29,0 km/h (5 Bft) 97,83 %
02.02.2020 03:30 8,3 C 7,2 C 7,2 C 88 % 1011,8 hPa 0,0 l/m 0 min 0 min 0 W/m 16,1 km/h (3 Bft) 97,87 %
02.02.2020 03:32 8,3 C 7,2 C 7,2 C 88 % 1011,9 hPa 0,0 l/m 0 min 0 min 0 W/m 12,9 km/h (3 Bft) 95,74 %
02.02.2020 03:34 8,2 C 7,2 C 7,2 C 88 % 1011,9 hPa 0,0 l/m 0 min 0 min 0 W/m 12,9 km/h (3 Bft) 97,87 %
02.02.2020 03:36 8,3 C 7,2 C 7,2 C 88 % 1011,9 hPa 0,0 l/m 0 min 0 min 0 W/m 25,7 km/h (4 Bft) 97,87 %
02.02.2020 03:38 8,2 C 7,2 C 7,2 C 88 % 1011,8 hPa 0,0 l/m 0 min 0 min 0 W/m 19,3 km/h (3 Bft) 97,87 %
02.02.2020 03:40 8,2 C 7,2 C 7,2 C 89 % 1011,8 hPa 0,0 l/m 0 min 0 min 0 W/m 16,1 km/h (3 Bft) 97,83 %
02.02.2020 03:42 8,2 C 7,8 C 7,2 C 89 % 1011,9 hPa 0,0 l/m 0 min 0 min 0 W/m 19,3 km/h (3 Bft) 97,87 %
02.02.2020 03:44 8,2 C 7,8 C 7,2 C 89 % 1011,8 hPa 0,0 l/m 0 min 0 min 0 W/m 29,0 km/h (5 Bft) 97,87 %
02.02.2020 03:46 8,2 C 7,8 C 7,2 C 89 % 1011,8 hPa 0,0 l/m 0 min 0 min 0 W/m 16,1 km/h (3 Bft) 95,74 %
02.02.2020 03:48 8,2 C 7,8 C 7,2 C 89 % 1011,8 hPa 0,0 l/m 0 min 0 min 0 W/m 16,1 km/h (3 Bft) 97,87 %
02.02.2020 03:50 8,2 C 7,2 C 7,2 C 89 % 1011,8 hPa 0,0 l/m 0 min 0 min 0 W/m 16,1 km/h (3 Bft) 97,87 %
02.02.2020 03:52 8,2 C 7,2 C 6,7 C 88 % 1011,8 hPa 0,0 l/m 0 min 0 min 0 W/m 19,3 km/h (3 Bft) 100,00 %
02.02.2020 03:54 8,2 C 7,2 C 6,7 C 89 % 1011,9 hPa 0,0 l/m 0 min 0 min 0 W/m 12,9 km/h (3 Bft) 100,00 %
02.02.2020 03:56 8,2 C 7,2 C 6,7 C 89 % 1011,8 hPa 0,0 l/m 0 min 0 min 0 W/m 29,0 km/h (5 Bft) 95,74 %
02.02.2020 03:58 8,2 C 7,8 C 7,2 C 89 % 1011,8 hPa 0,0 l/m 0 min 0 min 0 W/m 22,5 km/h (4 Bft) 100,00 %
02.02.2020 04:00 8,2 C 7,8 C 7,2 C 89 % 1011,9 hPa 0,0 l/m 0 min 0 min 0 W/m 16,1 km/h (3 Bft) 100,00 %
02.02.2020 04:02 8,2 C 7,2 C 7,2 C 89 % 1011,9 hPa 0,0 l/m 0 min 0 min 0 W/m 16,1 km/h (3 Bft) 100,00 %
02.02.2020 04:04 8,2 C 7,2 C 7,2 C 89 % 1011,9 hPa 0,0 l/m 0 min 0 min 0 W/m 12,9 km/h (3 Bft) 97,83 %
02.02.2020 04:06 8,2 C 7,2 C 6,7 C 89 % 1011,9 hPa 0,0 l/m 0 min 0 min 0 W/m 12,9 km/h (3 Bft) 100,00 %
02.02.2020 04:08 8,2 C 7,2 C 6,7 C 89 % 1011,9 hPa 0,0 l/m 0 min 0 min 0 W/m 19,3 km/h (3 Bft) 100,00 %
02.02.2020 04:10 8,2 C 7,2 C 6,7 C 89 % 1012,0 hPa 0,0 l/m 0 min 0 min 0 W/m 19,3 km/h (3 Bft) 100,00 %
02.02.2020 04:12 8,2 C 7,2 C 6,7 C 89 % 1012,0 hPa 0,0 l/m 0 min 0 min 0 W/m 16,1 km/h (3 Bft) 100,00 %
02.02.2020 04:14 8,2 C 7,2 C 6,7 C 89 % 1011,9 hPa 0,0 l/m 0 min 0 min 0 W/m 19,3 km/h (3 Bft) 97,83 %
02.02.2020 04:16 8,2 C 7,2 C 6,7 C 89 % 1012,0 hPa 0,0 l/m 0 min 0 min 0 W/m 16,1 km/h (3 Bft) 100,00 %
02.02.2020 04:18 8,2 C 7,2 C 7,2 C 89 % 1011,9 hPa 0,0 l/m 0 min 0 min 0 W/m 19,3 km/h (3 Bft) 100,00 %
02.02.2020 04:20 8,2 C 7,2 C 6,7 C 89 % 1012,0 hPa 0,0 l/m 0 min 0 min 0 W/m 16,1 km/h (3 Bft) 97,87 %
02.02.2020 04:22 8,2 C 7,2 C 6,7 C 89 % 1011,9 hPa 0,0 l/m 0 min 0 min 0 W/m 12,9 km/h (3 Bft) 97,87 %
02.02.2020 04:24 8,2 C 7,2 C 7,2 C 89 % 1012,0 hPa 0,0 l/m 0 min 0 min 0 W/m 29,0 km/h (5 Bft) 95,74 %
02.02.2020 04:26 8,2 C 7,2 C 6,7 C 89 % 1011,8 hPa 0,0 l/m 0 min 0 min 0 W/m 22,5 km/h (4 Bft) 97,83 %
02.02.2020 04:28 8,2 C 7,2 C 6,7 C 89 % 1011,8 hPa 0,0 l/m 0 min 0 min 0 W/m 16,1 km/h (3 Bft) 95,74 %
02.02.2020 04:30 8,2 C 7,2 C 6,7 C 89 % 1011,8 hPa 0,0 l/m 0 min 0 min 0 W/m 16,1 km/h (3 Bft) 78,72 %
02.02.2020 04:32 8,2 C 7,2 C 6,7 C 89 % 1011,8 hPa 0,0 l/m 0 min 0 min 0 W/m 16,1 km/h (3 Bft) 69,23 %
02.02.2020 04:34 8,2 C 7,2 C 6,7 C 89 % 1011,7 hPa 0,0 l/m 0 min 0 min 0 W/m 22,5 km/h (4 Bft) 95,74 %
02.02.2020 04:36 8,1 C 7,2 C 6,7 C 89 % 1011,7 hPa 0,0 l/m 0 min 0 min 0 W/m 9,7 km/h (2 Bft) 93,62 %
02.02.2020 04:38 8,1 C 7,2 C 6,7 C 89 % 1011,7 hPa 0,0 l/m 0 min 0 min 0 W/m 16,1 km/h (3 Bft) 95,65 %
02.02.2020 04:40 8,1 C 7,2 C 6,7 C 89 % 1011,7 hPa 0,0 l/m 0 min 0 min 0 W/m 22,5 km/h (4 Bft) 95,74 %
02.02.2020 04:42 8,1 C 7,2 C 6,7 C 89 % 1011,8 hPa 0,0 l/m 0 min 0 min 0 W/m 12,9 km/h (3 Bft) 93,62 %
02.02.2020 04:44 8,1 C 7,2 C 6,7 C 89 % 1011,7 hPa 0,0 l/m 0 min 0 min 0 W/m 16,1 km/h (3 Bft) 95,74 %
02.02.2020 04:46 8,1 C 7,2 C 6,7 C 89 % 1011,7 hPa 0,0 l/m 0 min 0 min 0 W/m 16,1 km/h (3 Bft) 95,74 %
02.02.2020 04:48 8,1 C 7,2 C 6,7 C 89 % 1011,7 hPa 0,0 l/m 0 min 0 min 0 W/m 19,3 km/h (3 Bft) 95,74 %
02.02.2020 04:50 8,1 C 7,2 C 6,7 C 89 % 1011,6 hPa 0,0 l/m 0 min 0 min 0 W/m 6,4 km/h (2 Bft) 93,48 %
02.02.2020 04:52 8,1 C 7,2 C 6,7 C 89 % 1011,6 hPa 0,0 l/m 0 min 0 min 0 W/m 19,3 km/h (3 Bft) 95,74 %
02.02.2020 04:54 8,0 C 7,2 C 6,7 C 89 % 1011,6 hPa 0,0 l/m 0 min 0 min 0 W/m 22,5 km/h (4 Bft) 95,74 %
02.02.2020 04:56 8,0 C 7,2 C 6,7 C 89 % 1011,6 hPa 0,0 l/m 0 min 0 min 0 W/m 16,1 km/h (3 Bft) 95,74 %
02.02.2020 04:58 8,0 C 7,2 C 6,7 C 89 % 1011,5 hPa 0,0 l/m 0 min 0 min 0 W/m 32,2 km/h (5 Bft) 95,74 %
02.02.2020 05:00 8,0 C 7,2 C 6,7 C 89 % 1011,5 hPa 0,0 l/m 0 min 0 min 0 W/m 16,1 km/h (3 Bft) 95,65 %
02.02.2020 05:02 8,0 C 7,2 C 6,7 C 89 % 1011,5 hPa 0,0 l/m 0 min 0 min 0 W/m 12,9 km/h (3 Bft) 95,74 %
02.02.2020 05:04 8,0 C 7,2 C 6,7 C 89 % 1011,4 hPa 0,0 l/m 0 min 0 min 0 W/m 12,9 km/h (3 Bft) 95,74 %
02.02.2020 05:06 8,0 C 7,2 C 6,7 C 89 % 1011,4 hPa 0,0 l/m 0 min 0 min 0 W/m 16,1 km/h (3 Bft) 95,74 %
02.02.2020 05:08 7,9 C 7,2 C 6,7 C 89 % 1011,4 hPa 0,0 l/m 0 min 0 min 0 W/m 19,3 km/h (3 Bft) 93,62 %
02.02.2020 05:10 7,9 C 7,2 C 6,7 C 89 % 1011,4 hPa 0,0 l/m 0 min 0 min 0 W/m 12,9 km/h (3 Bft) 95,74 %
02.02.2020 05:12 7,9 C 7,2 C 6,7 C 89 % 1011,4 hPa 0,0 l/m 0 min 0 min 0 W/m 12,9 km/h (3 Bft) 95,65 %
02.02.2020 05:14 7,9 C 7,2 C 6,7 C 89 % 1011,5 hPa 0,0 l/m 0 min 0 min 0 W/m 12,9 km/h (3 Bft) 95,74 %
02.02.2020 05:16 7,9 C 7,2 C 6,7 C 89 % 1011,6 hPa 0,0 l/m 0 min 0 min 0 W/m 9,7 km/h (2 Bft) 95,74 %
02.02.2020 05:18 7,9 C 7,2 C 6,7 C 89 % 1011,6 hPa 0,0 l/m 0 min 0 min 0 W/m 16,1 km/h (3 Bft) 95,74 %
02.02.2020 05:20 7,9 C 7,2 C 6,7 C 89 % 1011,6 hPa 0,0 l/m 0 min 0 min 0 W/m 16,1 km/h (3 Bft) 100,00 %
02.02.2020 05:22 7,8 C 7,2 C 6,7 C 89 % 1011,6 hPa 0,0 l/m 0 min 0 min 0 W/m 16,1 km/h (3 Bft) 100,00 %
02.02.2020 05:24 7,8 C 7,2 C 6,7 C 89 % 1011,6 hPa 0,0 l/m 0 min 0 min 0 W/m 25,7 km/h (4 Bft) 100,00 %
02.02.2020 05:26 7,8 C 7,2 C 6,7 C 89 % 1011,6 hPa 0,0 l/m 0 min 0 min 0 W/m 19,3 km/h (3 Bft) 100,00 %
02.02.2020 05:28 7,8 C 7,2 C 6,7 C 89 % 1011,6 hPa 0,0 l/m 0 min 0 min 0 W/m 16,1 km/h (3 Bft) 97,87 %
02.02.2020 05:30 7,8 C 7,2 C 6,7 C 90 % 1011,6 hPa 0,0 l/m 0 min 0 min 0 W/m 16,1 km/h (3 Bft) 100,00 %
02.02.2020 05:32 7,8 C 7,2 C 6,7 C 90 % 1011,7 hPa 0,0 l/m 0 min 0 min 0 W/m 29,0 km/h (5 Bft) 100,00 %
02.02.2020 05:34 7,8 C 7,2 C 6,7 C 90 % 1011,6 hPa 0,0 l/m 0 min 0 min 0 W/m 16,1 km/h (3 Bft) 100,00 %
02.02.2020 05:36 7,8 C 7,2 C 6,7 C 90 % 1011,6 hPa 0,0 l/m 0 min 0 min 0 W/m 16,1 km/h (3 Bft) 100,00 %
02.02.2020 05:38 7,8 C 7,2 C 6,7 C 90 % 1011,5 hPa 0,0 l/m 0 min 0 min 0 W/m 16,1 km/h (3 Bft) 100,00 %
02.02.2020 05:40 7,8 C 7,2 C 6,7 C 90 % 1011,5 hPa 0,0 l/m 0 min 0 min 0 W/m 19,3 km/h (3 Bft) 100,00 %
02.02.2020 05:42 7,8 C 7,2 C 6,7 C 90 % 1011,4 hPa 0,0 l/m 0 min 0 min 0 W/m 16,1 km/h (3 Bft) 97,87 %
02.02.2020 05:44 7,8 C 7,2 C 6,7 C 90 % 1011,3 hPa 0,0 l/m 0 min 0 min 0 W/m 16,1 km/h (3 Bft) 97,87 %
02.02.2020 05:46 7,8 C 7,2 C 6,7 C 90 % 1011,4 hPa 0,0 l/m 0 min 0 min 0 W/m 16,1 km/h (3 Bft) 97,87 %
02.02.2020 05:48 7,8 C 7,2 C 6,7 C 90 % 1011,5 hPa 0,0 l/m 0 min 0 min 0 W/m 16,1 km/h (3 Bft) 97,83 %
02.02.2020 05:50 7,8 C 7,2 C 6,7 C 90 % 1011,5 hPa 0,0 l/m 0 min 0 min 0 W/m 22,5 km/h (4 Bft) 95,74 %
02.02.2020 05:52 7,7 C 7,2 C 6,7 C 90 % 1011,5 hPa 0,0 l/m 0 min 0 min 0 W/m 25,7 km/h (4 Bft) 97,87 %
02.02.2020 05:54 7,7 C 7,2 C 6,7 C 90 % 1011,5 hPa 0,0 l/m 0 min 0 min 0 W/m 22,5 km/h (4 Bft) 97,87 %
02.02.2020 05:56 7,7 C 6,7 C 6,7 C 90 % 1011,5 hPa 0,0 l/m 0 min 0 min 0 W/m 12,9 km/h (3 Bft) 97,87 %
02.02.2020 05:58 7,7 C 6,7 C 6,7 C 90 % 1011,5 hPa 0,0 l/m 0 min 0 min 0 W/m 12,9 km/h (3 Bft) 97,87 %
02.02.2020 06:00 7,7 C 6,7 C 6,7 C 90 % 1011,5 hPa 0,0 l/m 0 min 0 min 0 W/m 22,5 km/h (4 Bft) 97,83 %
02.02.2020 06:02 7,7 C 6,7 C 6,7 C 90 % 1011,5 hPa 0,0 l/m 0 min 0 min 0 W/m 25,7 km/h (4 Bft) 97,87 %
02.02.2020 06:04 7,7 C 6,7 C 6,7 C 90 % 1011,4 hPa 0,0 l/m 0 min 0 min 0 W/m 22,5 km/h (4 Bft) 97,87 %
02.02.2020 06:06 7,7 C 6,7 C 6,7 C 90 % 1011,5 hPa 0,0 l/m 0 min 0 min 0 W/m 32,2 km/h (5 Bft) 97,87 %
02.02.2020 06:08 7,7 C 6,7 C 6,7 C 89 % 1011,4 hPa 0,0 l/m 0 min 0 min 0 W/m 19,3 km/h (3 Bft) 95,74 %
02.02.2020 06:10 7,7 C 6,7 C 6,7 C 89 % 1011,3 hPa 0,0 l/m 0 min 0 min 0 W/m 19,3 km/h (3 Bft) 97,83 %
02.02.2020 06:12 7,7 C 6,7 C 6,7 C 89 % 1011,4 hPa 0,0 l/m 0 min 0 min 0 W/m 22,5 km/h (4 Bft) 97,87 %
02.02.2020 06:14 7,6 C 6,7 C 6,7 C 89 % 1011,4 hPa 0,0 l/m 0 min 0 min 0 W/m 25,7 km/h (4 Bft) 97,87 %
02.02.2020 06:16 7,6 C 6,7 C 6,7 C 89 % 1011,3 hPa 0,0 l/m 0 min 0 min 0 W/m 25,7 km/h (4 Bft) 97,96 %
02.02.2020 06:18 7,6 C 7,2 C 6,7 C 89 % 1011,4 hPa 0,0 l/m 0 min 0 min 0 W/m 22,5 km/h (4 Bft) 97,87 %
02.02.2020 06:20 7,6 C 6,7 C 6,7 C 90 % 1011,3 hPa 0,0 l/m 0 min 0 min 0 W/m 16,1 km/h (3 Bft) 97,87 %
02.02.2020 06:22 7,6 C 6,7 C 6,7 C 90 % 1011,2 hPa 0,0 l/m 0 min 0 min 0 W/m 22,5 km/h (4 Bft) 95,65 %
02.02.2020 06:24 7,6 C 6,7 C 6,7 C 90 % 1011,2 hPa 0,0 l/m 0 min 0 min 0 W/m 19,3 km/h (3 Bft) 95,74 %
02.02.2020 06:26 7,6 C 6,7 C 6,7 C 89 % 1011,2 hPa 0,0 l/m 0 min 0 min 0 W/m 19,3 km/h (3 Bft) 97,87 %
02.02.2020 06:28 7,6 C 6,7 C 6,7 C 89 % 1011,2 hPa 0,0 l/m 0 min 0 min 0 W/m 25,7 km/h (4 Bft) 100,00 %
02.02.2020 06:30 7,6 C 6,7 C 6,7 C 89 % 1011,2 hPa 0,0 l/m 0 min 0 min 0 W/m 16,1 km/h (3 Bft) 100,00 %
02.02.2020 06:32 7,6 C 6,7 C 6,7 C 89 % 1011,2 hPa 0,0 l/m 0 min 0 min 0 W/m 22,5 km/h (4 Bft) 100,00 %
02.02.2020 06:34 7,6 C 6,7 C 6,7 C 89 % 1011,1 hPa 0,0 l/m 0 min 0 min 0 W/m 25,7 km/h (4 Bft) 100,00 %
02.02.2020 06:36 7,6 C 6,7 C 6,7 C 89 % 1011,1 hPa 0,0 l/m 0 min 0 min 0 W/m 29,0 km/h (5 Bft) 100,00 %
02.02.2020 06:38 7,6 C 6,7 C 6,7 C 89 % 1011,2 hPa 0,0 l/m 0 min 0 min 0 W/m 22,5 km/h (4 Bft) 100,00 %
02.02.2020 06:40 7,6 C 6,7 C 6,7 C 89 % 1011,1 hPa 0,0 l/m 0 min 0 min 0 W/m 25,7 km/h (4 Bft) 100,00 %
02.02.2020 06:42 7,6 C 6,7 C 6,7 C 89 % 1010,9 hPa 0,0 l/m 0 min 0 min 0 W/m 19,3 km/h (3 Bft) 100,00 %
02.02.2020 06:44 7,6 C 6,7 C 6,7 C 89 % 1010,9 hPa 0,0 l/m 0 min 0 min 0 W/m 22,5 km/h (4 Bft) 97,87 %
02.02.2020 06:46 7,6 C 6,7 C 6,7 C 89 % 1010,8 hPa 0,0 l/m 0 min 0 min 0 W/m 19,3 km/h (3 Bft) 95,65 %
02.02.2020 06:48 7,6 C 6,7 C 6,1 C 89 % 1010,8 hPa 0,0 l/m 0 min 0 min 0 W/m 22,5 km/h (4 Bft) 100,00 %
02.02.2020 06:50 7,6 C 6,7 C 6,7 C 89 % 1010,7 hPa 0,0 l/m 0 min 0 min 0 W/m 25,7 km/h (4 Bft) 100,00 %
02.02.2020 06:52 7,6 C 6,7 C 6,1 C 89 % 1010,7 hPa 0,0 l/m 0 min 0 min 0 W/m 22,5 km/h (4 Bft) 97,87 %
02.02.2020 06:54 7,6 C 6,7 C 6,7 C 89 % 1010,7 hPa 0,0 l/m 0 min 0 min 0 W/m 19,3 km/h (3 Bft) 100,00 %
02.02.2020 06:56 7,6 C 6,7 C 6,7 C 89 % 1010,6 hPa 0,0 l/m 0 min 0 min 0 W/m 19,3 km/h (3 Bft) 100,00 %
02.02.2020 06:58 7,6 C 6,7 C 6,7 C 89 % 1010,5 hPa 0,0 l/m 0 min 0 min 0 W/m 19,3 km/h (3 Bft) 100,00 %
02.02.2020 07:00 7,6 C 6,7 C 6,7 C 89 % 1010,5 hPa 0,0 l/m 0 min 0 min 0 W/m 16,1 km/h (3 Bft) 97,87 %
02.02.2020 07:02 7,6 C 6,7 C 6,7 C 89 % 1010,5 hPa 0,0 l/m 0 min 0 min 0 W/m 19,3 km/h (3 Bft) 100,00 %
02.02.2020 07:04 7,6 C 6,7 C 6,7 C 89 % 1010,5 hPa 0,0 l/m 0 min 0 min 0 W/m 25,7 km/h (4 Bft) 100,00 %
02.02.2020 07:06 7,6 C 6,7 C 6,7 C 89 % 1010,5 hPa 0,0 l/m 0 min 0 min 0 W/m 16,1 km/h (3 Bft) 100,00 %
02.02.2020 07:08 7,6 C 6,7 C 6,7 C 89 % 1010,4 hPa 0,0 l/m 0 min 0 min 0 W/m 12,9 km/h (3 Bft) 100,00 %
02.02.2020 07:10 7,6 C 6,7 C 6,1 C 89 % 1010,4 hPa 0,0 l/m 0 min 0 min 0 W/m 16,1 km/h (3 Bft) 97,83 %
02.02.2020 07:12 7,6 C 6,7 C 6,1 C 89 % 1010,4 hPa 0,0 l/m 0 min 0 min 0 W/m 22,5 km/h (4 Bft) 100,00 %
02.02.2020 07:14 7,6 C 6,7 C 6,1 C 89 % 1010,5 hPa 0,0 l/m 0 min 0 min 0 W/m 16,1 km/h (3 Bft) 100,00 %
02.02.2020 07:16 7,6 C 6,7 C 6,1 C 89 % 1010,4 hPa 0,0 l/m 0 min 0 min 0 W/m 12,9 km/h (3 Bft) 97,87 %
02.02.2020 07:18 7,6 C 6,7 C 6,1 C 89 % 1010,5 hPa 0,0 l/m 0 min 0 min 0 W/m 6,4 km/h (2 Bft) 97,87 %
02.02.2020 07:20 7,6 C 6,7 C 6,1 C 89 % 1010,4 hPa 0,0 l/m 0 min 0 min 0 W/m 6,4 km/h (2 Bft) 97,87 %
02.02.2020 07:22 7,6 C 6,7 C 6,1 C 89 % 1010,4 hPa 0,0 l/m 0 min 0 min 0 W/m 9,7 km/h (2 Bft) 95,65 %
02.02.2020 07:24 7,6 C 6,7 C 6,1 C 89 % 1010,4 hPa 0,0 l/m 0 min 0 min 0 W/m 9,7 km/h (2 Bft) 97,87 %
02.02.2020 07:26 7,5 C 6,7 C 6,1 C 89 % 1010,4 hPa 0,0 l/m 0 min 0 min 0 W/m 12,9 km/h (3 Bft) 97,87 %
02.02.2020 07:28 7,5 C 6,7 C 6,1 C 89 % 1010,4 hPa 0,0 l/m 0 min 0 min 0 W/m 12,9 km/h (3 Bft) 97,87 %
02.02.2020 07:30 7,5 C 6,7 C 6,1 C 89 % 1010,4 hPa 0,0 l/m 0 min 0 min 0 W/m 12,9 km/h (3 Bft) 97,87 %
02.02.2020 07:32 7,5 C 6,7 C 6,1 C 89 % 1010,4 hPa 0,0 l/m 0 min 0 min 0 W/m 16,1 km/h (3 Bft) 97,83 %
02.02.2020 07:34 7,5 C 6,7 C 6,1 C 89 % 1010,4 hPa 0,0 l/m 0 min 0 min 0 W/m 16,1 km/h (3 Bft) 97,87 %
02.02.2020 07:36 7,5 C 6,7 C 6,1 C 89 % 1010,3 hPa 0,0 l/m 0 min 0 min 0 W/m 16,1 km/h (3 Bft) 97,87 %
02.02.2020 07:38 7,5 C 6,7 C 6,1 C 89 % 1010,3 hPa 0,0 l/m 0 min 0 min 0 W/m 16,1 km/h (3 Bft) 97,87 %
02.02.2020 07:40 7,5 C 6,7 C 6,1 C 89 % 1010,4 hPa 0,0 l/m 0 min 0 min 0 W/m 19,3 km/h (3 Bft) 97,87 %
02.02.2020 07:42 7,4 C 6,7 C 6,1 C 89 % 1010,3 hPa 0,0 l/m 0 min 0 min 0 W/m 12,9 km/h (3 Bft) 97,87 %
02.02.2020 07:44 7,5 C 6,7 C 6,1 C 89 % 1010,3 hPa 0,0 l/m 0 min 0 min 0 W/m 16,1 km/h (3 Bft) 97,83 %
02.02.2020 07:46 7,4 C 6,7 C 6,1 C 89 % 1010,2 hPa 0,0 l/m 0 min 0 min 0 W/m 6,4 km/h (2 Bft) 97,87 %
02.02.2020 07:48 7,4 C 6,7 C 6,1 C 89 % 1010,2 hPa 0,0 l/m 0 min 0 min 0 W/m 12,9 km/h (3 Bft) 97,87 %
02.02.2020 07:50 7,4 C 6,7 C 6,1 C 89 % 1010,3 hPa 0,0 l/m 0 min 0 min 0 W/m 12,9 km/h (3 Bft) 100,00 %
02.02.2020 07:52 7,4 C 6,7 C 6,1 C 89 % 1010,3 hPa 0,0 l/m 0 min 0 min 0 W/m 16,1 km/h (3 Bft) 89,36 %
02.02.2020 07:54 7,4 C 6,7 C 6,1 C 89 % 1010,1 hPa 0,0 l/m 0 min 0 min 0 W/m 16,1 km/h (3 Bft) 93,62 %
02.02.2020 07:56 7,4 C 6,7 C 6,1 C 89 % 1010,2 hPa 0,0 l/m 0 min 0 min 0 W/m 16,1 km/h (3 Bft) 95,74 %
02.02.2020 07:58 7,4 C 6,7 C 6,1 C 89 % 1010,1 hPa 0,0 l/m 0 min 0 min 0 W/m 16,1 km/h (3 Bft) 95,65 %
02.02.2020 08:00 7,4 C 6,7 C 6,1 C 89 % 1010,1 hPa 0,0 l/m 0 min 0 min 0 W/m 12,9 km/h (3 Bft) 95,74 %
02.02.2020 08:02 7,4 C 6,7 C 6,1 C 89 % 1010,1 hPa 0,0 l/m 0 min 0 min 0 W/m 12,9 km/h (3 Bft) 93,62 %
02.02.2020 08:04 7,4 C 6,7 C 6,1 C 89 % 1010,0 hPa 0,0 l/m 0 min 0 min 0 W/m 12,9 km/h (3 Bft) 97,87 %
02.02.2020 08:06 7,4 C 6,7 C 6,1 C 89 % 1010,0 hPa 0,0 l/m 0 min 2 min 0 W/m 16,1 km/h (3 Bft) 97,87 %
02.02.2020 08:08 7,4 C 6,1 C 5,6 C 89 % 1009,9 hPa 0,0 l/m 0 min 2 min 0 W/m 6,4 km/h (2 Bft) 97,83 %
02.02.2020 08:10 7,4 C 6,1 C 5,6 C 89 % 1009,9 hPa 0,0 l/m 0 min 2 min 0 W/m 12,9 km/h (3 Bft) 97,87 %
02.02.2020 08:12 7,4 C 6,1 C 5,6 C 89 % 1009,9 hPa 0,0 l/m 0 min 2 min 0 W/m 6,4 km/h (2 Bft) 95,74 %
02.02.2020 08:14 7,4 C 6,1 C 5,6 C 90 % 1009,8 hPa 0,0 l/m 0 min 2 min 0 W/m 12,9 km/h (3 Bft) 95,74 %
02.02.2020 08:16 7,4 C 5,6 C 5,0 C 90 % 1009,7 hPa 0,0 l/m 0 min 2 min 0 W/m 12,9 km/h (3 Bft) 100,00 %
02.02.2020 08:18 7,4 C 5,6 C 5,0 C 90 % 1009,7 hPa 0,0 l/m 0 min 2 min 0 W/m 12,9 km/h (3 Bft) 97,87 %
02.02.2020 08:20 7,4 C 5,6 C 5,0 C 90 % 1009,6 hPa 0,0 l/m 0 min 2 min 0 W/m 16,1 km/h (3 Bft) 95,65 %
02.02.2020 08:22 7,4 C 5,6 C 5,0 C 90 % 1009,5 hPa 0,0 l/m 0 min 2 min 0 W/m 12,9 km/h (3 Bft) 93,62 %
02.02.2020 08:24 7,4 C 5,6 C 5,0 C 90 % 1009,4 hPa 0,2 l/m 0 min 2 min 0 W/m 12,9 km/h (3 Bft) 95,74 %
02.02.2020 08:26 7,4 C 5,6 C 5,0 C 90 % 1009,4 hPa 0,0 l/m 0 min 2 min 0 W/m 16,1 km/h (3 Bft) 93,62 %
02.02.2020 08:28 7,3 C 5,6 C 5,0 C 91 % 1009,3 hPa 0,0 l/m 0 min 2 min 0 W/m 12,9 km/h (3 Bft) 97,87 %
02.02.2020 08:30 7,3 C 5,6 C 5,0 C 91 % 1009,3 hPa 0,0 l/m 0 min 2 min 0 W/m 19,3 km/h (3 Bft) 95,74 %
02.02.2020 08:32 7,3 C 5,6 C 5,0 C 91 % 1009,3 hPa 0,2 l/m 0 min 2 min 1 W/m 16,1 km/h (3 Bft) 95,65 %
02.02.2020 08:34 7,3 C 5,6 C 5,0 C 91 % 1009,3 hPa 0,0 l/m 0 min 2 min 5 W/m 16,1 km/h (3 Bft) 95,74 %
02.02.2020 08:36 7,3 C 5,6 C 5,0 C 91 % 1009,3 hPa 0,0 l/m 0 min 2 min 5 W/m 16,1 km/h (3 Bft) 95,74 %
02.02.2020 08:38 7,2 C 5,6 C 5,0 C 91 % 1009,3 hPa 0,0 l/m 0 min 2 min 6 W/m 16,1 km/h (3 Bft) 95,74 %
02.02.2020 08:40 7,2 C 5,6 C 5,0 C 92 % 1009,2 hPa 0,0 l/m 0 min 2 min 8 W/m 19,3 km/h (3 Bft) 95,74 %
02.02.2020 08:42 7,2 C 5,6 C 5,0 C 92 % 1009,2 hPa 0,0 l/m 0 min 2 min 9 W/m 16,1 km/h (3 Bft) 95,74 %
02.02.2020 08:44 7,2 C 5,6 C 5,0 C 92 % 1009,3 hPa 0,0 l/m 0 min 2 min 9 W/m 16,1 km/h (3 Bft) 91,30 %
02.02.2020 08:46 7,1 C 5,6 C 5,0 C 92 % 1009,3 hPa 0,0 l/m 0 min 2 min 10 W/m 12,9 km/h (3 Bft) 95,74 %
02.02.2020 08:48 7,1 C 5,6 C 5,0 C 92 % 1009,3 hPa 0,2 l/m 0 min 2 min 11 W/m 16,1 km/h (3 Bft) 97,87 %
02.02.2020 08:50 7,1 C 5,6 C 5,0 C 92 % 1009,1 hPa 0,0 l/m 0 min 2 min 12 W/m 16,1 km/h (3 Bft) 97,87 %
02.02.2020 08:52 7,1 C 5,6 C 5,0 C 92 % 1009,1 hPa 0,0 l/m 0 min 2 min 14 W/m 19,3 km/h (3 Bft) 95,74 %
02.02.2020 08:54 7,1 C 5,6 C 5,0 C 93 % 1009,2 hPa 0,0 l/m 0 min 2 min 14 W/m 12,9 km/h (3 Bft) 97,83 %
02.02.2020 08:56 7,1 C 5,6 C 5,0 C 93 % 1009,2 hPa 0,0 l/m 0 min 2 min 14 W/m 12,9 km/h (3 Bft) 97,87 %
02.02.2020 08:58 7,1 C 5,6 C 5,0 C 93 % 1009,1 hPa 0,0 l/m 0 min 2 min 14 W/m 22,5 km/h (4 Bft) 97,87 %
02.02.2020 09:00 7,0 C 5,6 C 5,0 C 93 % 1009,0 hPa 0,2 l/m 0 min 2 min 12 W/m 19,3 km/h (3 Bft) 63,83 %
02.02.2020 09:02 7,0 C 5,6 C 5,0 C 93 % 1009,0 hPa 0,0 l/m 0 min 2 min 12 W/m 16,1 km/h (3 Bft) 85,71 %
02.02.2020 09:04 7,0 C 5,6 C 5,0 C 93 % 1009,1 hPa 0,0 l/m 0 min 2 min 12 W/m 12,9 km/h (3 Bft) 97,87 %
02.02.2020 09:06 6,9 C 5,6 C 5,0 C 93 % 1009,0 hPa 0,0 l/m 0 min 2 min 12 W/m 12,9 km/h (3 Bft) 100,00 %
02.02.2020 09:08 6,9 C 5,6 C 5,0 C 94 % 1009,0 hPa 0,0 l/m 0 min 2 min 12 W/m 16,1 km/h (3 Bft) 97,87 %
02.02.2020 09:10 6,9 C 5,6 C 5,0 C 94 % 1009,0 hPa 0,0 l/m 0 min 2 min 12 W/m 12,9 km/h (3 Bft) 100,00 %
02.02.2020 09:12 6,9 C 5,6 C 5,0 C 94 % 1008,9 hPa 0,0 l/m 0 min 2 min 12 W/m 16,1 km/h (3 Bft) 91,49 %
02.02.2020 09:14 6,9 C 5,6 C 5,0 C 94 % 1008,9 hPa 0,0 l/m 0 min 2 min 12 W/m 16,1 km/h (3 Bft) 100,00 %
02.02.2020 09:16 6,9 C 5,6 C 5,0 C 94 % 1008,9 hPa 0,0 l/m 0 min 2 min 12 W/m 12,9 km/h (3 Bft) 97,87 %
02.02.2020 09:18 6,9 C 5,6 C 5,0 C 94 % 1008,9 hPa 0,2 l/m 0 min 2 min 12 W/m 12,9 km/h (3 Bft) 97,83 %
02.02.2020 09:20 6,9 C 5,6 C 5,0 C 94 % 1008,9 hPa 0,0 l/m 0 min 2 min 12 W/m 12,9 km/h (3 Bft) 100,00 %
02.02.2020 09:22 6,9 C 5,6 C 5,0 C 94 % 1008,8 hPa 0,0 l/m 0 min 2 min 12 W/m 19,3 km/h (3 Bft) 100,00 %
02.02.2020 09:24 6,8 C 5,6 C 5,0 C 94 % 1008,8 hPa 0,0 l/m 0 min 2 min 12 W/m 12,9 km/h (3 Bft) 100,00 %
02.02.2020 09:26 6,8 C 5,6 C 5,0 C 94 % 1008,6 hPa 0,2 l/m 0 min 2 min 14 W/m 12,9 km/h (3 Bft) 100,00 %
02.02.2020 09:28 6,8 C 5,6 C 5,0 C 94 % 1008,6 hPa 0,0 l/m 0 min 2 min 17 W/m 12,9 km/h (3 Bft) 100,00 %
02.02.2020 09:30 6,8 C 5,6 C 5,0 C 94 % 1008,5 hPa 0,0 l/m 0 min 2 min 20 W/m 19,3 km/h (3 Bft) 100,00 %
02.02.2020 09:32 6,8 C 5,6 C 5,0 C 94 % 1008,5 hPa 0,0 l/m 0 min 2 min 23 W/m 16,1 km/h (3 Bft) 100,00 %
02.02.2020 09:34 6,8 C 5,6 C 5,0 C 94 % 1008,4 hPa 0,0 l/m 0 min 2 min 24 W/m 12,9 km/h (3 Bft) 100,00 %
02.02.2020 09:36 6,8 C 5,6 C 5,0 C 95 % 1008,3 hPa 0,0 l/m 0 min 2 min 26 W/m 16,1 km/h (3 Bft) 97,87 %
02.02.2020 09:38 6,8 C 5,6 C 5,0 C 95 % 1008,3 hPa 0,2 l/m 0 min 2 min 26 W/m 16,1 km/h (3 Bft) 100,00 %
02.02.2020 09:40 6,8 C 5,6 C 5,0 C 95 % 1008,2 hPa 0,0 l/m 0 min 2 min 26 W/m 16,1 km/h (3 Bft) 100,00 %
02.02.2020 09:42 6,8 C 5,6 C 5,0 C 95 % 1008,3 hPa 0,0 l/m 0 min 2 min 27 W/m 19,3 km/h (3 Bft) 97,83 %
02.02.2020 09:44 6,7 C 5,6 C 5,0 C 95 % 1008,3 hPa 0,2 l/m 0 min 2 min 24 W/m 16,1 km/h (3 Bft) 100,00 %
02.02.2020 09:46 6,7 C 5,6 C 5,0 C 95 % 1008,2 hPa 0,0 l/m 0 min 2 min 23 W/m 19,3 km/h (3 Bft) 97,87 %
02.02.2020 09:48 6,7 C 5,0 C 5,0 C 95 % 1008,3 hPa 0,0 l/m 0 min 2 min 22 W/m 12,9 km/h (3 Bft) 100,00 %
02.02.2020 09:50 6,7 C 5,6 C 5,0 C 95 % 1008,2 hPa 0,0 l/m 0 min 2 min 21 W/m 16,1 km/h (3 Bft) 100,00 %
02.02.2020 09:52 6,7 C 5,0 C 5,0 C 95 % 1008,2 hPa 0,0 l/m 0 min 2 min 20 W/m 25,7 km/h (4 Bft) 97,83 %
02.02.2020 09:54 6,6 C 5,0 C 5,0 C 95 % 1008,2 hPa 0,0 l/m 0 min 2 min 19 W/m 22,5 km/h (4 Bft) 95,74 %
02.02.2020 09:56 6,6 C 5,0 C 5,0 C 95 % 1008,1 hPa 0,0 l/m 0 min 2 min 21 W/m 16,1 km/h (3 Bft) 97,87 %
02.02.2020 09:58 6,6 C 5,0 C 5,0 C 95 % 1008,0 hPa 0,0 l/m 0 min 2 min 22 W/m 22,5 km/h (4 Bft) 91,49 %
02.02.2020 10:00 6,6 C 5,0 C 5,0 C 95 % 1007,9 hPa 0,0 l/m 0 min 2 min 24 W/m 12,9 km/h (3 Bft) 97,87 %
02.02.2020 10:02 6,6 C 5,0 C 5,0 C 95 % 1007,9 hPa 0,0 l/m 0 min 2 min 25 W/m 19,3 km/h (3 Bft) 97,87 %
02.02.2020 10:04 6,6 C 5,0 C 5,0 C 95 % 1007,9 hPa 0,0 l/m 0 min 2 min 26 W/m 12,9 km/h (3 Bft) 95,65 %
02.02.2020 10:06 6,6 C 5,0 C 5,0 C 95 % 1007,8 hPa 0,0 l/m 0 min 2 min 29 W/m 16,1 km/h (3 Bft) 97,87 %
02.02.2020 10:08 6,5 C 5,0 C 5,0 C 95 % 1007,9 hPa 0,2 l/m 0 min 2 min 29 W/m 19,3 km/h (3 Bft) 93,62 %
02.02.2020 10:10 6,5 C 5,0 C 5,0 C 95 % 1007,8 hPa 0,0 l/m 0 min 2 min 28 W/m 22,5 km/h (4 Bft) 97,87 %
02.02.2020 10:12 6,5 C 5,0 C 5,0 C 96 % 1007,8 hPa 0,0 l/m 0 min 2 min 26 W/m 25,7 km/h (4 Bft) 97,87 %
02.02.2020 10:14 6,5 C 5,0 C 5,0 C 96 % 1007,6 hPa 0,2 l/m 0 min 2 min 29 W/m 22,5 km/h (4 Bft) 97,87 %
02.02.2020 10:16 6,5 C 5,0 C 5,0 C 96 % 1007,6 hPa 0,0 l/m 0 min 2 min 32 W/m 25,7 km/h (4 Bft) 97,83 %
02.02.2020 10:18 6,5 C 5,0 C 5,0 C 96 % 1007,7 hPa 0,0 l/m 0 min 2 min 34 W/m 22,5 km/h (4 Bft) 97,87 %
02.02.2020 10:20 6,5 C 5,0 C 5,0 C 96 % 1007,6 hPa 0,0 l/m 0 min 2 min 38 W/m 16,1 km/h (3 Bft) 97,87 %
02.02.2020 10:22 6,5 C 5,0 C 5,0 C 96 % 1007,7 hPa 0,2 l/m 0 min 2 min 37 W/m 16,1 km/h (3 Bft) 89,36 %
02.02.2020 10:24 6,5 C 5,0 C 5,0 C 96 % 1007,7 hPa 0,0 l/m 0 min 2 min 35 W/m 19,3 km/h (3 Bft) 97,87 %
02.02.2020 10:26 6,5 C 5,0 C 5,0 C 96 % 1007,6 hPa 0,2 l/m 0 min 2 min 37 W/m 16,1 km/h (3 Bft) 97,87 %
02.02.2020 10:28 6,5 C 5,6 C 5,0 C 96 % 1007,5 hPa 0,0 l/m 0 min 2 min 40 W/m 19,3 km/h (3 Bft) 97,83 %
02.02.2020 10:30 6,4 C 5,6 C 5,0 C 96 % 1007,5 hPa 0,0 l/m 0 min 2 min 41 W/m 19,3 km/h (3 Bft) 95,74 %
02.02.2020 10:32 6,4 C 5,6 C 5,0 C 96 % 1007,5 hPa 0,0 l/m 0 min 2 min 35 W/m 22,5 km/h (4 Bft) 97,87 %
02.02.2020 10:34 6,4 C 5,6 C 5,0 C 96 % 1007,3 hPa 0,0 l/m 0 min 2 min 33 W/m 12,9 km/h (3 Bft) 97,87 %
02.02.2020 10:36 6,4 C 5,0 C 5,0 C 96 % 1007,3 hPa 0,0 l/m 0 min 0 min 31 W/m 16,1 km/h (3 Bft) 97,87 %
02.02.2020 10:38 6,4 C 5,0 C 5,0 C 96 % 1007,2 hPa 0,0 l/m 0 min 2 min 31 W/m 22,5 km/h (4 Bft) 97,87 %
02.02.2020 10:40 6,4 C 5,6 C 5,0 C 96 % 1007,2 hPa 0,0 l/m 0 min 2 min 37 W/m 22,5 km/h (4 Bft) 100,00 %
02.02.2020 10:42 6,4 C 5,6 C 5,0 C 96 % 1007,1 hPa 0,0 l/m 0 min 2 min 44 W/m 16,1 km/h (3 Bft) 100,00 %
02.02.2020 10:44 6,4 C 5,6 C 5,0 C 96 % 1007,0 hPa 0,2 l/m 0 min 2 min 48 W/m 19,3 km/h (3 Bft) 97,87 %
02.02.2020 10:46 6,4 C 5,6 C 5,0 C 96 % 1007,0 hPa 0,0 l/m 0 min 0 min 51 W/m 16,1 km/h (3 Bft) 97,87 %
02.02.2020 10:48 6,4 C 5,6 C 5,0 C 97 % 1007,0 hPa 0,0 l/m 0 min 2 min 52 W/m 19,3 km/h (3 Bft) 100,00 %
02.02.2020 10:50 6,4 C 5,6 C 5,0 C 97 % 1006,9 hPa 0,0 l/m 0 min 2 min 55 W/m 12,9 km/h (3 Bft) 100,00 %
02.02.2020 10:52 6,4 C 5,6 C 5,0 C 97 % 1006,9 hPa 0,2 l/m 0 min 2 min 51 W/m 19,3 km/h (3 Bft) 100,00 %
02.02.2020 10:54 6,5 C 5,6 C 5,0 C 97 % 1007,0 hPa 0,0 l/m 0 min 2 min 46 W/m 19,3 km/h (3 Bft) 100,00 %
02.02.2020 10:56 6,5 C 5,6 C 5,0 C 97 % 1006,9 hPa 0,0 l/m 0 min 2 min 43 W/m 16,1 km/h (3 Bft) 100,00 %
02.02.2020 10:58 6,5 C 5,6 C 5,0 C 97 % 1006,6 hPa 0,0 l/m 0 min 2 min 48 W/m 19,3 km/h (3 Bft) 100,00 %
02.02.2020 11:00 6,5 C 5,6 C 5,0 C 97 % 1006,6 hPa 0,0 l/m 0 min 2 min 53 W/m 22,5 km/h (4 Bft) 100,00 %
02.02.2020 11:02 6,5 C 5,6 C 5,0 C 97 % 1006,5 hPa 0,2 l/m 0 min 2 min 65 W/m 19,3 km/h (3 Bft) 100,00 %
02.02.2020 11:04 6,5 C 5,6 C 5,0 C 97 % 1006,4 hPa 0,0 l/m 0 min 2 min 53 W/m 19,3 km/h (3 Bft) 97,73 %
02.02.2020 11:06 6,5 C 5,6 C 5,0 C 97 % 1006,5 hPa 0,2 l/m 0 min 2 min 39 W/m 16,1 km/h (3 Bft) 95,74 %
02.02.2020 11:08 6,4 C 5,6 C 5,0 C 97 % 1006,4 hPa 0,0 l/m 0 min 2 min 39 W/m 12,9 km/h (3 Bft) 97,87 %
02.02.2020 11:10 6,4 C 5,6 C 5,0 C 97 % 1006,4 hPa 0,0 l/m 0 min 2 min 47 W/m 22,5 km/h (4 Bft) 97,87 %
02.02.2020 11:12 6,4 C 5,6 C 5,0 C 97 % 1006,5 hPa 0,0 l/m 0 min 2 min 38 W/m 19,3 km/h (3 Bft) 97,87 %
02.02.2020 11:14 6,5 C 5,6 C 5,0 C 97 % 1006,5 hPa 0,2 l/m 0 min 2 min 37 W/m 19,3 km/h (3 Bft) 97,83 %
02.02.2020 11:16 6,4 C 5,6 C 5,0 C 97 % 1006,5 hPa 0,0 l/m 0 min 2 min 47 W/m 19,3 km/h (3 Bft) 97,87 %
02.02.2020 11:18 6,5 C 5,6 C 5,0 C 97 % 1006,4 hPa 0,0 l/m 0 min 0 min 42 W/m 16,1 km/h (3 Bft) 100,00 %
02.02.2020 11:20 6,4 C 5,6 C 5,0 C 97 % 1006,3 hPa 0,2 l/m 0 min 0 min 39 W/m 19,3 km/h (3 Bft) 95,74 %
02.02.2020 11:22 6,5 C 5,6 C 5,0 C 97 % 1006,3 hPa 0,0 l/m 0 min 0 min 43 W/m 16,1 km/h (3 Bft) 95,74 %
02.02.2020 11:24 6,5 C 5,6 C 5,0 C 97 % 1006,3 hPa 0,0 l/m 0 min 2 min 47 W/m 22,5 km/h (4 Bft) 95,74 %
02.02.2020 11:26 6,5 C 5,6 C 5,0 C 97 % 1006,3 hPa 0,0 l/m 0 min 2 min 55 W/m 19,3 km/h (3 Bft) 95,65 %
02.02.2020 11:28 6,5 C 5,6 C 5,0 C 97 % 1006,0 hPa 0,0 l/m 0 min 2 min 63 W/m 22,5 km/h (4 Bft) 93,62 %
02.02.2020 11:30 6,5 C 5,6 C 5,0 C 97 % 1006,0 hPa 0,0 l/m 0 min 2 min 57 W/m 19,3 km/h (3 Bft) 95,74 %
02.02.2020 11:32 6,5 C 5,6 C 5,0 C 97 % 1005,9 hPa 0,0 l/m 0 min 2 min 59 W/m 19,3 km/h (3 Bft) 95,74 %
02.02.2020 11:34 6,5 C 5,6 C 5,0 C 98 % 1006,1 hPa 0,0 l/m 0 min 2 min 41 W/m 22,5 km/h (4 Bft) 95,74 %
02.02.2020 11:36 6,5 C 5,6 C 5,0 C 98 % 1006,1 hPa 0,0 l/m 0 min 2 min 24 W/m 22,5 km/h (4 Bft) 95,65 %
02.02.2020 11:38 6,5 C 5,6 C 5,0 C 98 % 1006,2 hPa 0,0 l/m 0 min 2 min 29 W/m 0,0 km/h (0 Bft) 91,49 %
02.02.2020 11:40 6,5 C 5,6 C 5,6 C 98 % 1006,1 hPa 0,0 l/m 0 min 2 min 42 W/m 12,9 km/h (3 Bft) 91,49 %
02.02.2020 11:42 6,5 C 5,6 C 5,6 C 98 % 1006,0 hPa 0,2 l/m 0 min 0 min 54 W/m 16,1 km/h (3 Bft) 95,74 %
02.02.2020 11:44 6,5 C 5,6 C 5,6 C 98 % 1005,8 hPa 0,0 l/m 0 min 0 min 64 W/m 6,4 km/h (2 Bft) 97,87 %
02.02.2020 11:46 6,5 C 5,6 C 5,6 C 98 % 1005,8 hPa 0,0 l/m 0 min 0 min 59 W/m 16,1 km/h (3 Bft) 95,74 %
02.02.2020 11:48 6,6 C 5,6 C 5,6 C 98 % 1005,7 hPa 0,0 l/m 0 min 0 min 42 W/m 22,5 km/h (4 Bft) 97,83 %
02.02.2020 11:50 6,6 C 5,6 C 5,6 C 98 % 1005,6 hPa 0,0 l/m 0 min 0 min 38 W/m 12,9 km/h (3 Bft) 97,87 %
02.02.2020 11:52 6,6 C 5,6 C 5,6 C 98 % 1005,5 hPa 0,0 l/m 0 min 2 min 39 W/m 16,1 km/h (3 Bft) 95,74 %
02.02.2020 11:54 6,6 C 5,6 C 5,6 C 98 % 1005,6 hPa 0,0 l/m 0 min 2 min 36 W/m 12,9 km/h (3 Bft) 97,87 %
02.02.2020 11:56 6,6 C 5,6 C 5,6 C 98 % 1005,5 hPa 0,2 l/m 0 min 2 min 39 W/m 16,1 km/h (3 Bft) 93,62 %
02.02.2020 11:58 6,6 C 5,6 C 5,6 C 98 % 1005,6 hPa 0,0 l/m 0 min 2 min 36 W/m 16,1 km/h (3 Bft) 97,87 %
02.02.2020 12:00 6,6 C 5,6 C 5,6 C 98 % 1005,5 hPa 0,0 l/m 0 min 2 min 37 W/m 19,3 km/h (3 Bft) 97,83 %
02.02.2020 12:02 6,6 C 6,1 C 5,6 C 98 % 1005,5 hPa 0,0 l/m 0 min 2 min 42 W/m 16,1 km/h (3 Bft) 95,74 %
02.02.2020 12:04 6,6 C 6,1 C 5,6 C 98 % 1005,5 hPa 0,0 l/m 0 min 2 min 42 W/m 6,4 km/h (2 Bft) 95,74 %
02.02.2020 12:07 6,7 C 6,1 C 5,6 C 98 % 1005,3 hPa 0,0 l/m 0 min 3 min 37 W/m 12,9 km/h (3 Bft) 97,14 %
02.02.2020 12:08 6,7 C 6,1 C 5,6 C 98 % 1005,3 hPa 0,0 l/m 0 min 1 min 35 W/m 6,4 km/h (2 Bft) 100,00 %
02.02.2020 12:10 6,7 C 6,1 C 5,6 C 98 % 1005,5 hPa 0,2 l/m 0 min 2 min 39 W/m 3,2 km/h (1 Bft) 97,87 %
02.02.2020 12:12 6,8 C 6,1 C 5,6 C 98 % 1005,2 hPa 0,0 l/m 0 min 2 min 56 W/m 6,4 km/h (2 Bft) 97,83 %
02.02.2020 12:14 6,8 C 6,1 C 5,6 C 98 % 1005,1 hPa 0,0 l/m 0 min 2 min 49 W/m 16,1 km/h (3 Bft) 93,62 %
02.02.2020 12:16 6,8 C 6,1 C 5,6 C 98 % 1005,0 hPa 0,0 l/m 0 min 2 min 52 W/m 16,1 km/h (3 Bft) 96,30 %
02.02.2020 12:18 6,8 C 6,1 C 5,6 C 98 % 1005,0 hPa 0,0 l/m 0 min 2 min 51 W/m 12,9 km/h (3 Bft) 100,00 %
02.02.2020 12:20 6,9 C 6,1 C 6,1 C 98 % 1005,0 hPa 0,0 l/m 0 min 2 min 40 W/m 3,2 km/h (1 Bft) 100,00 %
02.02.2020 12:22 6,9 C 6,1 C 6,1 C 99 % 1005,0 hPa 0,2 l/m 0 min 2 min 40 W/m 3,2 km/h (1 Bft) 100,00 %
02.02.2020 12:24 6,9 C 6,1 C 6,1 C 99 % 1005,0 hPa 0,0 l/m 0 min 2 min 49 W/m 12,9 km/h (3 Bft) 97,87 %
02.02.2020 12:26 6,9 C 6,7 C 6,1 C 98 % 1004,9 hPa 0,0 l/m 0 min 0 min 56 W/m 0,0 km/h (0 Bft) 97,92 %
02.02.2020 12:28 7,0 C 6,7 C 6,1 C 99 % 1004,9 hPa 0,0 l/m 0 min 0 min 67 W/m 0,0 km/h (0 Bft) 97,87 %
02.02.2020 12:30 7,0 C 6,7 C 6,1 C 99 % 1004,9 hPa 0,0 l/m 0 min 0 min 65 W/m 3,2 km/h (1 Bft) 98,18 %
02.02.2020 12:32 7,1 C 6,7 C 6,1 C 99 % 1004,8 hPa 0,0 l/m 0 min 0 min 69 W/m 16,1 km/h (3 Bft) 94,74 %
02.02.2020 12:34 7,1 C 6,7 C 6,1 C 99 % 1004,8 hPa 0,0 l/m 0 min 0 min 70 W/m 12,9 km/h (3 Bft) 95,83 %
02.02.2020 12:36 7,2 C 6,7 C 6,7 C 99 % 1004,6 hPa 0,0 l/m 0 min 0 min 72 W/m 6,4 km/h (2 Bft) 97,83 %
02.02.2020 12:38 7,2 C 6,7 C 6,1 C 99 % 1004,5 hPa 0,0 l/m 0 min 0 min 57 W/m 3,2 km/h (1 Bft) 98,18 %
02.02.2020 12:40 7,3 C 6,7 C 6,7 C 99 % 1004,6 hPa 0,2 l/m 0 min 0 min 50 W/m 0,0 km/h (0 Bft) 97,87 %
02.02.2020 12:42 7,3 C 6,7 C 6,7 C 99 % 1004,7 hPa 0,0 l/m 0 min 0 min 44 W/m 0,0 km/h (0 Bft) 94,74 %
02.02.2020 12:44 7,3 C 6,7 C 6,7 C 99 % 1004,8 hPa 0,0 l/m 0 min 0 min 47 W/m 9,7 km/h (2 Bft) 95,83 %
02.02.2020 12:46 7,3 C 7,2 C 6,7 C 99 % 1004,8 hPa 0,0 l/m 0 min 0 min 49 W/m 0,0 km/h (0 Bft) 97,83 %
02.02.2020 12:48 7,4 C 7,2 C 6,7 C 99 % 1004,8 hPa 0,0 l/m 0 min 0 min 50 W/m 3,2 km/h (1 Bft) 96,36 %
02.02.2020 12:50 7,4 C 7,2 C 6,7 C 99 % 1004,8 hPa 0,0 l/m 0 min 0 min 49 W/m 6,4 km/h (2 Bft) 97,37 %
02.02.2020 12:52 7,5 C 7,2 C 6,7 C 99 % 1004,7 hPa 0,0 l/m 0 min 0 min 52 W/m 16,1 km/h (3 Bft) 97,92 %
02.02.2020 12:54 7,6 C 7,2 C 6,7 C 99 % 1004,6 hPa 0,0 l/m 0 min 0 min 60 W/m 3,2 km/h (1 Bft) 97,87 %
02.02.2020 12:56 7,7 C 7,2 C 6,7 C 99 % 1004,5 hPa 0,0 l/m 0 min 0 min 66 W/m 16,1 km/h (3 Bft) 96,30 %
02.02.2020 12:58 7,7 C 7,2 C 7,2 C 99 % 1004,5 hPa 0,0 l/m 0 min 0 min 73 W/m 6,4 km/h (2 Bft) 97,44 %
02.02.2020 13:00 7,8 C 7,8 C 7,2 C 99 % 1004,5 hPa 0,0 l/m 0 min 0 min 84 W/m 12,9 km/h (3 Bft) 97,87 %
02.02.2020 13:02 7,8 C 7,8 C 7,2 C 99 % 1004,4 hPa 0,0 l/m 0 min 0 min 83 W/m 6,4 km/h (2 Bft) 93,62 %
02.02.2020 13:04 7,9 C 7,8 C 7,2 C 99 % 1004,4 hPa 0,0 l/m 0 min 0 min 80 W/m 12,9 km/h (3 Bft) 98,18 %
02.02.2020 13:06 8,0 C 7,8 C 7,2 C 99 % 1004,3 hPa 0,0 l/m 0 min 0 min 90 W/m 16,1 km/h (3 Bft) 97,37 %
02.02.2020 13:08 8,1 C 8,3 C 7,2 C 99 % 1004,3 hPa 0,0 l/m 0 min 0 min 87 W/m 6,4 km/h (2 Bft) 97,92 %
02.02.2020 13:10 8,2 C 8,3 C 7,8 C 99 % 1004,3 hPa 0,0 l/m 0 min 0 min 78 W/m 9,7 km/h (2 Bft) 97,83 %
02.02.2020 13:12 8,3 C 8,3 C 7,8 C 99 % 1004,3 hPa 0,0 l/m 0 min 0 min 71 W/m 9,7 km/h (2 Bft) 98,18 %
02.02.2020 13:14 8,4 C 8,3 C 7,8 C 100 % 1004,2 hPa 0,0 l/m 0 min 0 min 61 W/m 6,4 km/h (2 Bft) 94,74 %
02.02.2020 13:16 8,5 C 8,3 C 7,8 C 100 % 1004,2 hPa 0,0 l/m 0 min 0 min 65 W/m 3,2 km/h (1 Bft) 97,92 %
02.02.2020 13:18 8,6 C 8,3 C 7,8 C 99 % 1004,3 hPa 0,0 l/m 0 min 0 min 63 W/m 3,2 km/h (1 Bft) 97,87 %
02.02.2020 13:20 8,7 C 8,9 C 7,8 C 99 % 1004,3 hPa 0,0 l/m 0 min 0 min 65 W/m 12,9 km/h (3 Bft) 96,30 %
02.02.2020 13:22 8,8 C 8,9 C 8,3 C 100 % 1004,3 hPa 0,0 l/m 0 min 0 min 58 W/m 12,9 km/h (3 Bft) 97,37 %
02.02.2020 13:24 8,9 C 9,4 C 8,3 C 100 % 1004,3 hPa 0,2 l/m 0 min 0 min 54 W/m 12,9 km/h (3 Bft) 97,87 %
02.02.2020 13:26 9,2 C 9,4 C 8,9 C 100 % 1004,3 hPa 0,0 l/m 0 min 0 min 60 W/m 25,7 km/h (4 Bft) 100,00 %
02.02.2020 13:28 9,3 C 9,4 C 8,9 C 100 % 1004,1 hPa 0,0 l/m 0 min 0 min 53 W/m 12,9 km/h (3 Bft) 100,00 %
02.02.2020 13:30 9,6 C 10,0 C 9,4 C 100 % 1004,0 hPa 0,0 l/m 0 min 0 min 48 W/m 25,7 km/h (4 Bft) 100,00 %
02.02.2020 13:32 10,0 C 10,0 C 9,4 C 100 % 1004,1 hPa 0,0 l/m 0 min 0 min 46 W/m 25,7 km/h (4 Bft) 97,37 %
02.02.2020 13:34 10,2 C 10,6 C 9,4 C 100 % 1004,1 hPa 0,0 l/m 0 min 0 min 52 W/m 25,7 km/h (4 Bft) 97,87 %
02.02.2020 13:36 10,4 C 10,6 C 9,4 C 100 % 1004,1 hPa 0,0 l/m 0 min 0 min 57 W/m 22,5 km/h (4 Bft) 97,87 %
02.02.2020 13:38 10,6 C 10,6 C 9,4 C 100 % 1004,1 hPa 0,0 l/m 0 min 0 min 43 W/m 29,0 km/h (5 Bft) 96,36 %
02.02.2020 13:40 10,8 C 10,6 C 9,4 C 100 % 1004,1 hPa 0,0 l/m 0 min 0 min 39 W/m 9,7 km/h (2 Bft) 97,37 %
02.02.2020 13:42 10,9 C 10,6 C 9,4 C 100 % 1004,2 hPa 0,0 l/m 0 min 0 min 33 W/m 12,9 km/h (3 Bft) 97,92 %
02.02.2020 13:44 10,9 C 10,6 C 10,0 C 100 % 1004,2 hPa 0,0 l/m 0 min 0 min 30 W/m 16,1 km/h (3 Bft) 97,83 %
02.02.2020 13:46 11,1 C 10,6 C 10,0 C 100 % 1004,2 hPa 0,0 l/m 0 min 0 min 39 W/m 16,1 km/h (3 Bft) 98,18 %
02.02.2020 13:48 11,1 C 10,6 C 10,0 C 100 % 1004,3 hPa 0,0 l/m 0 min 0 min 39 W/m 35,4 km/h (5 Bft) 97,37 %
02.02.2020 13:50 11,2 C 10,6 C 10,0 C 100 % 1004,3 hPa 0,0 l/m 0 min 0 min 46 W/m 16,1 km/h (3 Bft) 95,83 %
02.02.2020 13:52 11,3 C 10,6 C 10,0 C 100 % 1004,2 hPa 0,0 l/m 0 min 0 min 58 W/m 19,3 km/h (3 Bft) 97,87 %
02.02.2020 13:54 11,3 C 10,6 C 10,0 C 100 % 1004,2 hPa 0,0 l/m 0 min 0 min 55 W/m 22,5 km/h (4 Bft) 95,74 %
02.02.2020 13:56 11,4 C 11,1 C 10,0 C 100 % 1004,2 hPa 0,0 l/m 0 min 0 min 67 W/m 12,9 km/h (3 Bft) 94,44 %
02.02.2020 13:58 11,4 C 11,1 C 10,0 C 100 % 1004,3 hPa 0,0 l/m 0 min 0 min 52 W/m 29,0 km/h (5 Bft) 97,37 %
02.02.2020 14:00 11,5 C 11,1 C 10,0 C 100 % 1004,3 hPa 0,0 l/m 0 min 0 min 40 W/m 6,4 km/h (2 Bft) 95,83 %
02.02.2020 14:02 11,5 C 11,1 C 10,0 C 100 % 1004,3 hPa 0,0 l/m 0 min 0 min 46 W/m 19,3 km/h (3 Bft) 97,87 %
02.02.2020 14:04 11,6 C 11,1 C 10,0 C 100 % 1004,4 hPa 0,0 l/m 0 min 2 min 40 W/m 22,5 km/h (4 Bft) 96,36 %
02.02.2020 14:06 11,6 C 11,1 C 10,0 C 100 % 1004,5 hPa 0,0 l/m 0 min 2 min 43 W/m 19,3 km/h (3 Bft) 94,74 %
02.02.2020 14:08 11,6 C 11,1 C 10,0 C 100 % 1004,4 hPa 0,0 l/m 0 min 2 min 42 W/m 22,5 km/h (4 Bft) 97,87 %
02.02.2020 14:10 11,6 C 11,1 C 10,0 C 100 % 1004,5 hPa 0,0 l/m 0 min 2 min 44 W/m 25,7 km/h (4 Bft) 97,87 %
02.02.2020 14:12 11,6 C 11,1 C 10,0 C 100 % 1004,5 hPa 0,0 l/m 0 min 2 min 40 W/m 16,1 km/h (3 Bft) 100,00 %
02.02.2020 14:14 11,7 C 11,1 C 10,0 C 100 % 1004,7 hPa 0,0 l/m 0 min 2 min 41 W/m 16,1 km/h (3 Bft) 100,00 %
02.02.2020 14:16 11,7 C 11,1 C 10,0 C 100 % 1004,7 hPa 0,0 l/m 0 min 2 min 39 W/m 22,5 km/h (4 Bft) 100,00 %
02.02.2020 14:18 11,7 C 11,1 C 10,0 C 100 % 1004,8 hPa 0,0 l/m 0 min 2 min 35 W/m 12,9 km/h (3 Bft) 97,87 %
02.02.2020 14:20 11,7 C 11,1 C 10,0 C 100 % 1004,8 hPa 0,0 l/m 0 min 2 min 37 W/m 12,9 km/h (3 Bft) 100,00 %
02.02.2020 14:22 11,7 C 11,1 C 10,0 C 100 % 1004,9 hPa 0,0 l/m 0 min 2 min 45 W/m 12,9 km/h (3 Bft) 97,37 %
02.02.2020 14:24 11,7 C 11,1 C 10,0 C 100 % 1005,0 hPa 0,0 l/m 0 min 2 min 41 W/m 22,5 km/h (4 Bft) 100,00 %
02.02.2020 14:26 11,7 C 11,1 C 10,0 C 100 % 1005,1 hPa 0,0 l/m 0 min 2 min 36 W/m 19,3 km/h (3 Bft) 95,74 %
02.02.2020 14:28 11,8 C 11,1 C 10,0 C 100 % 1005,1 hPa 0,0 l/m 0 min 2 min 35 W/m 22,5 km/h (4 Bft) 96,36 %
02.02.2020 14:30 11,8 C 11,1 C 10,0 C 100 % 1005,2 hPa 0,0 l/m 0 min 2 min 24 W/m 16,1 km/h (3 Bft) 97,37 %
02.02.2020 14:32 11,8 C 10,6 C 10,0 C 100 % 1005,3 hPa 0,0 l/m 0 min 2 min 23 W/m 25,7 km/h (4 Bft) 97,87 %
02.02.2020 14:34 11,8 C 11,1 C 10,0 C 100 % 1005,3 hPa 0,0 l/m 0 min 2 min 45 W/m 12,9 km/h (3 Bft) 97,87 %
02.02.2020 14:36 11,8 C 10,6 C 10,0 C 100 % 1005,1 hPa 0,0 l/m 0 min 2 min 43 W/m 22,5 km/h (4 Bft) 96,36 %
02.02.2020 14:38 11,8 C 10,6 C 10,0 C 100 % 1005,2 hPa 0,2 l/m 0 min 2 min 24 W/m 19,3 km/h (3 Bft) 94,74 %
02.02.2020 14:40 11,7 C 10,6 C 10,0 C 100 % 1005,4 hPa 0,0 l/m 0 min 2 min 24 W/m 12,9 km/h (3 Bft) 97,87 %
02.02.2020 14:42 11,8 C 10,6 C 10,0 C 100 % 1005,4 hPa 0,0 l/m 0 min 2 min 35 W/m 16,1 km/h (3 Bft) 97,92 %
02.02.2020 14:44 11,7 C 11,1 C 10,0 C 100 % 1005,4 hPa 0,0 l/m 0 min 0 min 39 W/m 22,5 km/h (4 Bft) 97,83 %
02.02.2020 14:46 11,7 C 11,1 C 10,0 C 100 % 1005,4 hPa 0,0 l/m 0 min 2 min 32 W/m 22,5 km/h (4 Bft) 98,18 %
02.02.2020 14:48 11,7 C 11,1 C 10,0 C 100 % 1005,3 hPa 0,0 l/m 0 min 0 min 30 W/m 12,9 km/h (3 Bft) 95,74 %
02.02.2020 14:50 11,7 C 11,1 C 10,0 C 100 % 1005,4 hPa 0,0 l/m 0 min 0 min 24 W/m 19,3 km/h (3 Bft) 97,87 %
02.02.2020 14:52 11,7 C 11,1 C 10,0 C 100 % 1005,4 hPa 0,0 l/m 0 min 2 min 20 W/m 16,1 km/h (3 Bft) 97,87 %
02.02.2020 14:54 11,7 C 11,1 C 10,0 C 100 % 1005,5 hPa 0,0 l/m 0 min 0 min 23 W/m 12,9 km/h (3 Bft) 97,83 %
02.02.2020 14:56 11,7 C 11,1 C 10,0 C 100 % 1005,5 hPa 0,0 l/m 0 min 0 min 28 W/m 16,1 km/h (3 Bft) 97,87 %
02.02.2020 14:58 11,7 C 11,1 C 10,0 C 100 % 1005,6 hPa 0,0 l/m 0 min 0 min 26 W/m 9,7 km/h (2 Bft) 97,87 %
02.02.2020 15:00 11,7 C 11,1 C 10,0 C 100 % 1005,7 hPa 0,0 l/m 0 min 0 min 24 W/m 12,9 km/h (3 Bft) 97,87 %
02.02.2020 15:02 11,7 C 11,1 C 10,0 C 100 % 1005,6 hPa 0,0 l/m 0 min 0 min 22 W/m 6,4 km/h (2 Bft) 97,87 %
02.02.2020 15:04 11,7 C 11,1 C 10,0 C 100 % 1005,7 hPa 0,0 l/m 0 min 0 min 25 W/m 22,5 km/h (4 Bft) 97,87 %
02.02.2020 15:06 11,7 C 11,1 C 10,0 C 100 % 1005,7 hPa 0,0 l/m 0 min 0 min 20 W/m 22,5 km/h (4 Bft) 95,65 %
02.02.2020 15:08 11,7 C 11,1 C 10,0 C 100 % 1005,7 hPa 0,0 l/m 0 min 0 min 26 W/m 19,3 km/h (3 Bft) 97,37 %
02.02.2020 15:10 11,7 C 11,1 C 10,0 C 100 % 1005,6 hPa 0,0 l/m 0 min 0 min 25 W/m 19,3 km/h (3 Bft) 97,87 %
02.02.2020 15:12 11,7 C 11,1 C 10,0 C 100 % 1005,6 hPa 0,0 l/m 0 min 0 min 21 W/m 25,7 km/h (4 Bft) 95,83 %
02.02.2020 15:14 11,7 C 11,1 C 10,0 C 100 % 1005,7 hPa 0,0 l/m 0 min 2 min 31 W/m 29,0 km/h (5 Bft) 97,87 %
02.02.2020 15:16 11,7 C 11,1 C 10,0 C 100 % 1005,7 hPa 0,0 l/m 0 min 0 min 34 W/m 16,1 km/h (3 Bft) 96,30 %
02.02.2020 15:18 11,7 C 11,1 C 10,0 C 100 % 1005,7 hPa 0,0 l/m 0 min 0 min 40 W/m 19,3 km/h (3 Bft) 97,44 %
02.02.2020 15:20 11,7 C 11,1 C 10,0 C 100 % 1005,8 hPa 0,0 l/m 0 min 0 min 44 W/m 16,1 km/h (3 Bft) 100,00 %
02.02.2020 15:22 11,8 C 11,1 C 10,0 C 100 % 1005,7 hPa 0,0 l/m 0 min 0 min 41 W/m 19,3 km/h (3 Bft) 97,92 %
02.02.2020 15:24 11,8 C 11,1 C 10,6 C 100 % 1005,7 hPa 0,0 l/m 0 min 0 min 52 W/m 25,7 km/h (4 Bft) 100,00 %
02.02.2020 15:26 11,8 C 11,1 C 10,6 C 100 % 1005,7 hPa 0,0 l/m 0 min 0 min 56 W/m 12,9 km/h (3 Bft) 100,00 %
02.02.2020 15:28 11,8 C 11,1 C 10,6 C 100 % 1005,6 hPa 0,0 l/m 0 min 0 min 50 W/m 25,7 km/h (4 Bft) 94,74 %
02.02.2020 15:30 11,8 C 11,1 C 10,6 C 100 % 1005,8 hPa 0,0 l/m 0 min 0 min 33 W/m 22,5 km/h (4 Bft) 100,00 %
02.02.2020 15:32 11,8 C 11,1 C 10,0 C 100 % 1006,0 hPa 0,0 l/m 0 min 0 min 14 W/m 22,5 km/h (4 Bft) 93,62 %
02.02.2020 15:34 11,8 C 11,1 C 10,0 C 100 % 1006,0 hPa 0,0 l/m 0 min 0 min 15 W/m 16,1 km/h (3 Bft) 98,18 %
02.02.2020 15:36 11,8 C 11,1 C 10,0 C 100 % 1006,2 hPa 0,0 l/m 0 min 0 min 21 W/m 25,7 km/h (4 Bft) 94,74 %
02.02.2020 15:38 11,8 C 11,1 C 10,0 C 100 % 1006,3 hPa 0,0 l/m 0 min 0 min 24 W/m 22,5 km/h (4 Bft) 97,92 %
02.02.2020 15:40 11,8 C 11,1 C 10,0 C 100 % 1006,2 hPa 0,0 l/m 0 min 0 min 27 W/m 19,3 km/h (3 Bft) 97,87 %
02.02.2020 15:42 11,9 C 11,1 C 10,0 C 100 % 1006,3 hPa 0,0 l/m 0 min 0 min 27 W/m 12,9 km/h (3 Bft) 96,30 %
02.02.2020 15:44 11,9 C 11,7 C 10,0 C 100 % 1006,3 hPa 0,0 l/m 0 min 0 min 25 W/m 32,2 km/h (5 Bft) 97,37 %
02.02.2020 15:46 11,9 C 11,7 C 10,0 C 100 % 1006,2 hPa 0,0 l/m 0 min 0 min 25 W/m 25,7 km/h (4 Bft) 95,83 %
02.02.2020 15:48 11,9 C 11,7 C 10,0 C 100 % 1006,3 hPa 0,0 l/m 0 min 0 min 39 W/m 25,7 km/h (4 Bft) 97,87 %
02.02.2020 15:50 11,9 C 11,7 C 10,6 C 100 % 1006,3 hPa 0,0 l/m 0 min 0 min 44 W/m 25,7 km/h (4 Bft) 98,18 %
02.02.2020 15:52 11,9 C 11,7 C 10,6 C 99 % 1006,3 hPa 0,0 l/m 0 min 0 min 54 W/m 19,3 km/h (3 Bft) 97,37 %
02.02.2020 15:54 11,9 C 11,7 C 10,6 C 99 % 1006,4 hPa 0,0 l/m 0 min 0 min 52 W/m 25,7 km/h (4 Bft) 93,62 %
02.02.2020 15:56 12,0 C 12,2 C 10,6 C 99 % 1006,4 hPa 0,0 l/m 0 min 0 min 37 W/m 22,5 km/h (4 Bft) 97,87 %
02.02.2020 15:58 12,0 C 12,2 C 10,6 C 99 % 1006,5 hPa 0,0 l/m 0 min 0 min 43 W/m 29,0 km/h (5 Bft) 96,36 %
02.02.2020 16:00 12,1 C 11,7 C 10,0 C 99 % 1006,7 hPa 0,0 l/m 0 min 0 min 41 W/m 19,3 km/h (3 Bft) 94,74 %
02.02.2020 16:02 12,1 C 12,2 C 10,6 C 99 % 1006,8 hPa 0,0 l/m 0 min 0 min 40 W/m 41,8 km/h (6 Bft) 95,83 %
02.02.2020 16:04 12,1 C 12,2 C 10,6 C 99 % 1006,9 hPa 0,0 l/m 0 min 0 min 33 W/m 19,3 km/h (3 Bft) 95,65 %
02.02.2020 16:06 12,1 C 11,7 C 10,0 C 99 % 1006,8 hPa 0,0 l/m 0 min 0 min 29 W/m 19,3 km/h (3 Bft) 96,36 %
02.02.2020 16:08 12,1 C 11,7 C 10,6 C 98 % 1006,7 hPa 0,0 l/m 0 min 0 min 36 W/m 25,7 km/h (4 Bft) 91,49 %
02.02.2020 16:10 12,1 C 12,2 C 10,6 C 98 % 1006,8 hPa 0,0 l/m 0 min 0 min 37 W/m 25,7 km/h (4 Bft) 97,37 %
02.02.2020 16:12 12,1 C 12,2 C 10,6 C 98 % 1006,8 hPa 0,0 l/m 0 min 0 min 42 W/m 19,3 km/h (3 Bft) 95,83 %
02.02.2020 16:14 12,1 C 11,7 C 10,6 C 98 % 1006,9 hPa 0,0 l/m 0 min 0 min 42 W/m 16,1 km/h (3 Bft) 95,74 %
02.02.2020 16:16 12,1 C 11,7 C 10,6 C 97 % 1007,0 hPa 0,0 l/m 0 min 0 min 42 W/m 12,9 km/h (3 Bft) 96,30 %
02.02.2020 16:18 12,1 C 12,2 C 10,6 C 97 % 1007,1 hPa 0,0 l/m 0 min 0 min 44 W/m 22,5 km/h (4 Bft) 100,00 %
02.02.2020 16:20 12,1 C 12,2 C 10,6 C 97 % 1007,0 hPa 0,0 l/m 0 min 0 min 49 W/m 22,5 km/h (4 Bft) 97,92 %
02.02.2020 16:22 12,1 C 11,7 C 10,6 C 97 % 1007,1 hPa 0,0 l/m 0 min 0 min 47 W/m 29,0 km/h (5 Bft) 97,87 %
02.02.2020 16:24 12,1 C 11,7 C 10,6 C 97 % 1007,1 hPa 0,0 l/m 0 min 0 min 47 W/m 19,3 km/h (3 Bft) 96,36 %
02.02.2020 16:26 12,1 C 12,2 C 10,6 C 97 % 1007,2 hPa 0,0 l/m 0 min 0 min 46 W/m 25,7 km/h (4 Bft) 94,74 %
02.02.2020 16:28 12,1 C 11,7 C 10,6 C 96 % 1007,3 hPa 0,0 l/m 0 min 0 min 39 W/m 12,9 km/h (3 Bft) 97,87 %
02.02.2020 16:30 12,1 C 11,7 C 10,6 C 96 % 1007,2 hPa 0,0 l/m 0 min 0 min 32 W/m 19,3 km/h (3 Bft) 97,87 %
02.02.2020 16:32 12,1 C 11,7 C 10,6 C 96 % 1007,2 hPa 0,0 l/m 0 min 0 min 28 W/m 16,1 km/h (3 Bft) 94,55 %
02.02.2020 16:34 12,1 C 11,7 C 10,6 C 96 % 1007,3 hPa 0,0 l/m 0 min 0 min 23 W/m 29,0 km/h (5 Bft) 97,37 %
02.02.2020 16:36 12,2 C 11,7 C 10,6 C 95 % 1007,3 hPa 0,0 l/m 0 min 0 min 24 W/m 16,1 km/h (3 Bft) 95,83 %
02.02.2020 16:38 12,2 C 11,7 C 10,6 C 95 % 1007,3 hPa 0,0 l/m 0 min 0 min 27 W/m 19,3 km/h (3 Bft) 97,87 %
02.02.2020 16:40 12,2 C 11,7 C 10,6 C 95 % 1007,3 hPa 0,0 l/m 0 min 0 min 27 W/m 16,1 km/h (3 Bft) 100,00 %
02.02.2020 16:42 12,2 C 11,7 C 10,6 C 95 % 1007,3 hPa 0,0 l/m 0 min 0 min 25 W/m 38,6 km/h (5 Bft) 100,00 %
02.02.2020 16:44 12,2 C 11,7 C 10,6 C 94 % 1007,4 hPa 0,0 l/m 0 min 0 min 24 W/m 16,1 km/h (3 Bft) 97,37 %
02.02.2020 16:46 12,2 C 11,7 C 10,6 C 94 % 1007,5 hPa 0,0 l/m 0 min 0 min 21 W/m 22,5 km/h (4 Bft) 100,00 %
02.02.2020 16:48 12,2 C 11,7 C 10,6 C 94 % 1007,4 hPa 0,0 l/m 0 min 0 min 19 W/m 32,2 km/h (5 Bft) 100,00 %
02.02.2020 16:50 12,2 C 11,7 C 10,6 C 93 % 1007,5 hPa 0,0 l/m 0 min 0 min 18 W/m 22,5 km/h (4 Bft) 100,00 %
02.02.2020 16:52 12,2 C 11,7 C 10,6 C 93 % 1007,5 hPa 0,0 l/m 0 min 0 min 16 W/m 16,1 km/h (3 Bft) 100,00 %
02.02.2020 16:54 12,2 C 12,2 C 10,6 C 93 % 1007,4 hPa 0,0 l/m 0 min 0 min 16 W/m 22,5 km/h (4 Bft) 100,00 %
02.02.2020 16:56 12,3 C 12,2 C 10,6 C 93 % 1007,6 hPa 0,0 l/m 0 min 0 min 13 W/m 19,3 km/h (3 Bft) 100,00 %
02.02.2020 16:58 12,3 C 11,7 C 10,6 C 92 % 1007,7 hPa 0,0 l/m 0 min 0 min 11 W/m 19,3 km/h (3 Bft) 98,18 %
02.02.2020 17:00 12,3 C 11,7 C 10,6 C 92 % 1007,8 hPa 0,0 l/m 0 min 0 min 11 W/m 19,3 km/h (3 Bft) 97,37 %
02.02.2020 17:02 12,3 C 11,7 C 10,6 C 92 % 1007,7 hPa 0,0 l/m 0 min 0 min 10 W/m 16,1 km/h (3 Bft) 100,00 %
02.02.2020 17:04 12,3 C 11,7 C 10,6 C 92 % 1007,7 hPa 0,0 l/m 0 min 0 min 7 W/m 16,1 km/h (3 Bft) 100,00 %
02.02.2020 17:06 12,3 C 11,7 C 10,6 C 92 % 1007,8 hPa 0,0 l/m 0 min 0 min 7 W/m 16,1 km/h (3 Bft) 100,00 %
02.02.2020 17:08 12,3 C 11,7 C 10,6 C 91 % 1007,8 hPa 0,0 l/m 0 min 0 min 5 W/m 25,7 km/h (4 Bft) 100,00 %
02.02.2020 17:10 12,4 C 11,7 C 10,6 C 91 % 1007,7 hPa 0,0 l/m 0 min 0 min 1 W/m 22,5 km/h (4 Bft) 100,00 %
02.02.2020 17:12 12,4 C 11,7 C 10,6 C 91 % 1007,7 hPa 0,0 l/m 0 min 0 min 0 W/m 25,7 km/h (4 Bft) 97,37 %
02.02.2020 17:14 12,4 C 11,7 C 10,6 C 91 % 1007,7 hPa 0,0 l/m 0 min 0 min 0 W/m 22,5 km/h (4 Bft) 100,00 %
02.02.2020 17:16 12,4 C 12,2 C 11,1 C 91 % 1007,8 hPa 0,0 l/m 0 min 0 min 0 W/m 35,4 km/h (5 Bft) 100,00 %
02.02.2020 17:18 12,4 C 11,7 C 10,6 C 91 % 1007,9 hPa 0,0 l/m 0 min 0 min 0 W/m 32,2 km/h (5 Bft) 100,00 %
02.02.2020 17:20 12,4 C 11,7 C 10,6 C 90 % 1007,9 hPa 0,0 l/m 0 min 0 min 0 W/m 25,7 km/h (4 Bft) 100,00 %
02.02.2020 17:22 12,4 C 11,7 C 10,6 C 90 % 1007,9 hPa 0,0 l/m 0 min 0 min 0 W/m 25,7 km/h (4 Bft) 97,92 %
02.02.2020 17:24 12,4 C 11,7 C 10,6 C 90 % 1008,0 hPa 0,0 l/m 0 min 0 min 0 W/m 16,1 km/h (3 Bft) 100,00 %
02.02.2020 17:26 12,4 C 11,7 C 10,6 C 90 % 1008,0 hPa 0,0 l/m 0 min 0 min 0 W/m 41,8 km/h (6 Bft) 100,00 %
02.02.2020 17:28 12,4 C 11,7 C 10,6 C 90 % 1008,0 hPa 0,0 l/m 0 min 0 min 0 W/m 19,3 km/h (3 Bft) 100,00 %
02.02.2020 17:30 12,4 C 11,7 C 10,6 C 90 % 1008,1 hPa 0,0 l/m 0 min 0 min 0 W/m 19,3 km/h (3 Bft) 97,92 %
02.02.2020 17:32 12,4 C 11,7 C 10,6 C 90 % 1008,1 hPa 0,0 l/m 0 min 0 min 0 W/m 22,5 km/h (4 Bft) 100,00 %
02.02.2020 17:34 12,3 C 11,7 C 10,6 C 90 % 1008,1 hPa 0,0 l/m 0 min 0 min 0 W/m 45,1 km/h (6 Bft) 100,00 %
02.02.2020 17:36 12,3 C 11,7 C 10,6 C 90 % 1008,1 hPa 0,0 l/m 0 min 0 min 0 W/m 22,5 km/h (4 Bft) 98,15 %
02.02.2020 17:38 12,3 C 11,7 C 10,6 C 89 % 1008,2 hPa 0,0 l/m 0 min 0 min 0 W/m 19,3 km/h (3 Bft) 97,37 %
02.02.2020 17:40 12,3 C 11,7 C 10,6 C 89 % 1008,3 hPa 0,0 l/m 0 min 0 min 0 W/m 25,7 km/h (4 Bft) 95,74 %
02.02.2020 17:42 12,3 C 11,7 C 10,6 C 89 % 1008,2 hPa 0,0 l/m 0 min 0 min 0 W/m 22,5 km/h (4 Bft) 97,92 %
02.02.2020 17:44 12,3 C 11,7 C 10,6 C 89 % 1008,3 hPa 0,0 l/m 0 min 0 min 0 W/m 19,3 km/h (3 Bft) 97,87 %
02.02.2020 17:46 12,3 C 11,7 C 10,6 C 89 % 1008,3 hPa 0,0 l/m 0 min 0 min 0 W/m 16,1 km/h (3 Bft) 98,18 %
02.02.2020 17:48 12,3 C 11,7 C 10,6 C 89 % 1008,3 hPa 0,0 l/m 0 min 0 min 0 W/m 19,3 km/h (3 Bft) 97,37 %
02.02.2020 17:50 12,3 C 11,7 C 10,6 C 89 % 1008,3 hPa 0,0 l/m 0 min 0 min 0 W/m 25,7 km/h (4 Bft) 97,87 %
02.02.2020 17:52 12,3 C 11,7 C 10,6 C 89 % 1008,3 hPa 0,0 l/m 0 min 0 min 0 W/m 32,2 km/h (5 Bft) 97,87 %
02.02.2020 17:54 12,3 C 11,7 C 10,6 C 89 % 1008,4 hPa 0,0 l/m 0 min 0 min 0 W/m 19,3 km/h (3 Bft) 96,36 %
02.02.2020 17:56 12,3 C 11,7 C 10,6 C 89 % 1008,5 hPa 0,0 l/m 0 min 0 min 0 W/m 29,0 km/h (5 Bft) 97,37 %
02.02.2020 17:58 12,2 C 11,7 C 10,6 C 89 % 1008,5 hPa 0,0 l/m 0 min 0 min 0 W/m 22,5 km/h (4 Bft) 97,92 %
02.02.2020 18:00 12,2 C 11,7 C 10,6 C 88 % 1008,6 hPa 0,0 l/m 0 min 0 min 0 W/m 35,4 km/h (5 Bft) 97,83 %
02.02.2020 18:02 12,2 C 11,7 C 10,6 C 88 % 1008,6 hPa 0,0 l/m 0 min 0 min 0 W/m 19,3 km/h (3 Bft) 98,18 %
02.02.2020 18:04 12,2 C 11,7 C 10,6 C 88 % 1008,6 hPa 0,0 l/m 0 min 0 min 0 W/m 19,3 km/h (3 Bft) 94,74 %
02.02.2020 18:06 12,2 C 11,7 C 10,6 C 88 % 1008,6 hPa 0,0 l/m 0 min 0 min 0 W/m 35,4 km/h (5 Bft) 97,92 %
02.02.2020 18:08 12,2 C 11,7 C 10,6 C 88 % 1008,8 hPa 0,0 l/m 0 min 0 min 0 W/m 16,1 km/h (3 Bft) 95,74 %
02.02.2020 18:10 12,2 C 11,7 C 10,6 C 88 % 1008,9 hPa 0,0 l/m 0 min 0 min 0 W/m 22,5 km/h (4 Bft) 98,18 %
02.02.2020 18:12 12,2 C 11,7 C 10,6 C 88 % 1008,9 hPa 0,0 l/m 0 min 0 min 0 W/m 19,3 km/h (3 Bft) 95,65 %
02.02.2020 18:14 12,2 C 11,7 C 10,6 C 88 % 1009,0 hPa 0,0 l/m 0 min 0 min 0 W/m 22,5 km/h (4 Bft) 94,74 %
02.02.2020 18:16 12,1 C 11,1 C 10,6 C 88 % 1009,0 hPa 0,0 l/m 0 min 0 min 0 W/m 16,1 km/h (3 Bft) 95,83 %
02.02.2020 18:18 12,1 C 11,1 C 10,6 C 88 % 1009,0 hPa 0,0 l/m 0 min 0 min 0 W/m 19,3 km/h (3 Bft) 95,74 %
02.02.2020 18:20 12,1 C 11,1 C 10,6 C 88 % 1009,0 hPa 0,0 l/m 0 min 0 min 0 W/m 22,5 km/h (4 Bft) 94,55 %
02.02.2020 18:22 12,1 C 11,1 C 10,6 C 88 % 1009,1 hPa 0,0 l/m 0 min 0 min 0 W/m 12,9 km/h (3 Bft) 94,74 %
02.02.2020 18:24 12,1 C 11,1 C 10,6 C 88 % 1009,1 hPa 0,0 l/m 0 min 0 min 0 W/m 12,9 km/h (3 Bft) 95,74 %
02.02.2020 18:26 12,1 C 11,1 C 10,6 C 88 % 1009,1 hPa 0,0 l/m 0 min 0 min 0 W/m 19,3 km/h (3 Bft) 91,49 %
02.02.2020 18:28 12,0 C 11,1 C 10,0 C 88 % 1009,1 hPa 0,0 l/m 0 min 0 min 0 W/m 9,7 km/h (2 Bft) 94,55 %
02.02.2020 18:30 12,0 C 11,1 C 10,0 C 88 % 1009,1 hPa 0,0 l/m 0 min 0 min 0 W/m 22,5 km/h (4 Bft) 97,37 %
02.02.2020 18:32 12,0 C 11,1 C 10,0 C 88 % 1009,1 hPa 0,0 l/m 0 min 0 min 0 W/m 22,5 km/h (4 Bft) 95,83 %
02.02.2020 18:34 11,9 C 11,1 C 10,6 C 88 % 1009,1 hPa 0,0 l/m 0 min 0 min 0 W/m 25,7 km/h (4 Bft) 83,33 %
02.02.2020 18:36 11,9 C 11,1 C 10,6 C 88 % 1009,2 hPa 0,0 l/m 0 min 0 min 0 W/m 19,3 km/h (3 Bft) 94,87 %
02.02.2020 18:38 11,9 C 11,1 C 10,6 C 88 % 1009,1 hPa 0,0 l/m 0 min 0 min 0 W/m 16,1 km/h (3 Bft) 93,88 %
02.02.2020 18:40 11,9 C 11,1 C 10,6 C 88 % 1009,2 hPa 0,0 l/m 0 min 0 min 0 W/m 22,5 km/h (4 Bft) 96,23 %
02.02.2020 18:42 11,9 C 11,1 C 10,0 C 88 % 1009,2 hPa 0,0 l/m 0 min 0 min 0 W/m 16,1 km/h (3 Bft) 97,37 %
02.02.2020 18:44 11,9 C 11,1 C 10,6 C 88 % 1009,2 hPa 0,0 l/m 0 min 0 min 0 W/m 19,3 km/h (3 Bft) 95,74 %
02.02.2020 18:46 11,9 C 11,1 C 10,6 C 88 % 1009,2 hPa 0,0 l/m 0 min 0 min 0 W/m 19,3 km/h (3 Bft) 94,12 %
02.02.2020 18:48 11,9 C 11,1 C 10,0 C 88 % 1009,2 hPa 0,0 l/m 0 min 0 min 0 W/m 16,1 km/h (3 Bft) 95,59 %
02.02.2020 18:50 11,9 C 11,1 C 10,0 C 88 % 1009,2 hPa 0,0 l/m 0 min 0 min 0 W/m 16,1 km/h (3 Bft) 97,37 %
02.02.2020 18:52 11,9 C 11,1 C 10,0 C 88 % 1009,3 hPa 0,0 l/m 0 min 0 min 0 W/m 16,1 km/h (3 Bft) 94,00 %
02.02.2020 18:54 11,9 C 11,1 C 10,6 C 88 % 1009,3 hPa 0,0 l/m 0 min 0 min 0 W/m 22,5 km/h (4 Bft) 94,34 %
02.02.2020 18:56 11,9 C 11,1 C 10,6 C 88 % 1009,4 hPa 0,0 l/m 0 min 0 min 0 W/m 29,0 km/h (5 Bft) 97,37 %
02.02.2020 18:58 11,9 C 11,1 C 10,6 C 88 % 1009,4 hPa 0,0 l/m 0 min 0 min 0 W/m 19,3 km/h (3 Bft) 95,74 %
02.02.2020 19:00 11,8 C 11,1 C 10,6 C 88 % 1009,5 hPa 0,0 l/m 0 min 0 min 0 W/m 16,1 km/h (3 Bft) 97,83 %
02.02.2020 19:02 11,9 C 11,1 C 10,6 C 88 % 1009,6 hPa 0,0 l/m 0 min 0 min 0 W/m 16,1 km/h (3 Bft) 97,87 %
02.02.2020 19:04 11,9 C 11,1 C 10,0 C 88 % 1009,6 hPa 0,0 l/m 0 min 0 min 0 W/m 12,9 km/h (3 Bft) 95,74 %
02.02.2020 19:06 11,8 C 11,1 C 10,0 C 88 % 1009,6 hPa 0,0 l/m 0 min 0 min 0 W/m 16,1 km/h (3 Bft) 97,87 %
02.02.2020 19:08 11,8 C 11,1 C 10,0 C 88 % 1009,7 hPa 0,0 l/m 0 min 0 min 0 W/m 22,5 km/h (4 Bft) 97,87 %
02.02.2020 19:10 11,8 C 11,1 C 10,0 C 88 % 1009,7 hPa 0,0 l/m 0 min 0 min 0 W/m 16,1 km/h (3 Bft) 95,74 %
02.02.2020 19:12 11,8 C 11,1 C 10,6 C 88 % 1009,8 hPa 0,0 l/m 0 min 0 min 0 W/m 35,4 km/h (5 Bft) 97,83 %
02.02.2020 19:14 11,8 C 11,1 C 10,6 C 88 % 1009,8 hPa 0,0 l/m 0 min 0 min 0 W/m 22,5 km/h (4 Bft) 100,00 %
02.02.2020 19:16 11,8 C 11,1 C 10,0 C 88 % 1009,8 hPa 0,0 l/m 0 min 0 min 0 W/m 19,3 km/h (3 Bft) 100,00 %
02.02.2020 19:18 11,8 C 11,1 C 10,0 C 88 % 1009,8 hPa 0,0 l/m 0 min 0 min 0 W/m 22,5 km/h (4 Bft) 100,00 %
02.02.2020 19:20 11,8 C 11,1 C 10,0 C 88 % 1009,9 hPa 0,0 l/m 0 min 0 min 0 W/m 22,5 km/h (4 Bft) 100,00 %
02.02.2020 19:22 11,8 C 11,1 C 10,0 C 88 % 1009,9 hPa 0,0 l/m 0 min 0 min 0 W/m 19,3 km/h (3 Bft) 100,00 %
02.02.2020 19:24 11,8 C 11,1 C 10,0 C 88 % 1009,9 hPa 0,0 l/m 0 min 0 min 0 W/m 19,3 km/h (3 Bft) 100,00 %
02.02.2020 19:26 11,8 C 11,1 C 10,0 C 88 % 1009,9 hPa 0,0 l/m 0 min 0 min 0 W/m 16,1 km/h (3 Bft) 100,00 %
02.02.2020 19:28 11,8 C 11,1 C 10,0 C 88 % 1009,9 hPa 0,0 l/m 0 min 0 min 0 W/m 19,3 km/h (3 Bft) 100,00 %
02.02.2020 19:30 11,8 C 11,1 C 10,6 C 88 % 1010,0 hPa 0,0 l/m 0 min 0 min 0 W/m 16,1 km/h (3 Bft) 100,00 %
02.02.2020 19:32 11,8 C 11,1 C 10,0 C 88 % 1010,0 hPa 0,0 l/m 0 min 0 min 0 W/m 12,9 km/h (3 Bft) 100,00 %
02.02.2020 19:34 11,8 C 11,1 C 10,0 C 88 % 1010,1 hPa 0,0 l/m 0 min 0 min 0 W/m 19,3 km/h (3 Bft) 100,00 %
02.02.2020 19:36 11,8 C 11,1 C 10,0 C 88 % 1010,2 hPa 0,0 l/m 0 min 0 min 0 W/m 32,2 km/h (5 Bft) 100,00 %
02.02.2020 19:38 11,7 C 11,1 C 10,0 C 88 % 1010,2 hPa 0,0 l/m 0 min 0 min 0 W/m 16,1 km/h (3 Bft) 97,87 %
02.02.2020 19:40 11,7 C 11,1 C 10,0 C 88 % 1010,1 hPa 0,0 l/m 0 min 0 min 0 W/m 16,1 km/h (3 Bft) 100,00 %
02.02.2020 19:42 11,7 C 11,1 C 10,0 C 88 % 1010,2 hPa 0,0 l/m 0 min 0 min 0 W/m 12,9 km/h (3 Bft) 97,87 %
02.02.2020 19:44 11,7 C 11,1 C 10,0 C 88 % 1010,3 hPa 0,0 l/m 0 min 0 min 0 W/m 12,9 km/h (3 Bft) 100,00 %
02.02.2020 19:46 11,7 C 11,1 C 10,0 C 88 % 1010,2 hPa 0,0 l/m 0 min 0 min 0 W/m 16,1 km/h (3 Bft) 97,87 %
02.02.2020 19:48 11,7 C 11,1 C 10,0 C 88 % 1010,3 hPa 0,0 l/m 0 min 0 min 0 W/m 19,3 km/h (3 Bft) 100,00 %
02.02.2020 19:50 11,7 C 11,1 C 10,0 C 88 % 1010,2 hPa 0,0 l/m 0 min 0 min 0 W/m 12,9 km/h (3 Bft) 100,00 %
02.02.2020 19:52 11,7 C 11,1 C 10,0 C 88 % 1010,3 hPa 0,0 l/m 0 min 0 min 0 W/m 16,1 km/h (3 Bft) 100,00 %
02.02.2020 19:54 11,7 C 11,1 C 10,0 C 88 % 1010,3 hPa 0,0 l/m 0 min 0 min 0 W/m 16,1 km/h (3 Bft) 100,00 %
02.02.2020 19:56 11,7 C 11,1 C 10,0 C 88 % 1010,4 hPa 0,0 l/m 0 min 0 min 0 W/m 19,3 km/h (3 Bft) 100,00 %
02.02.2020 19:58 11,6 C 11,1 C 10,0 C 88 % 1010,3 hPa 0,0 l/m 0 min 0 min 0 W/m 16,1 km/h (3 Bft) 100,00 %
02.02.2020 20:00 11,6 C 11,1 C 10,0 C 88 % 1010,3 hPa 0,0 l/m 0 min 0 min 0 W/m 12,9 km/h (3 Bft) 100,00 %
02.02.2020 20:02 11,6 C 11,1 C 10,0 C 88 % 1010,3 hPa 0,0 l/m 0 min 0 min 0 W/m 22,5 km/h (4 Bft) 100,00 %
02.02.2020 20:04 11,6 C 11,1 C 10,0 C 88 % 1010,3 hPa 0,0 l/m 0 min 0 min 0 W/m 16,1 km/h (3 Bft) 95,74 %
02.02.2020 20:06 11,6 C 11,1 C 10,0 C 88 % 1010,3 hPa 0,0 l/m 0 min 0 min 0 W/m 16,1 km/h (3 Bft) 100,00 %
02.02.2020 20:08 11,6 C 11,1 C 10,0 C 88 % 1010,3 hPa 0,0 l/m 0 min 0 min 0 W/m 19,3 km/h (3 Bft) 100,00 %
02.02.2020 20:10 11,6 C 10,6 C 10,0 C 88 % 1010,3 hPa 0,0 l/m 0 min 0 min 0 W/m 29,0 km/h (5 Bft) 100,00 %
02.02.2020 20:12 11,6 C 10,6 C 10,0 C 88 % 1010,3 hPa 0,0 l/m 0 min 0 min 0 W/m 19,3 km/h (3 Bft) 100,00 %
02.02.2020 20:14 11,6 C 10,6 C 10,0 C 88 % 1010,3 hPa 0,0 l/m 0 min 0 min 0 W/m 19,3 km/h (3 Bft) 100,00 %
02.02.2020 20:16 11,6 C 10,6 C 10,0 C 88 % 1010,3 hPa 0,0 l/m 0 min 0 min 0 W/m 19,3 km/h (3 Bft) 100,00 %
02.02.2020 20:18 11,6 C 10,6 C 10,0 C 88 % 1010,3 hPa 0,0 l/m 0 min 0 min 0 W/m 19,3 km/h (3 Bft) 100,00 %
02.02.2020 20:20 11,6 C 10,6 C 10,0 C 88 % 1010,4 hPa 0,0 l/m 0 min 0 min 0 W/m 19,3 km/h (3 Bft) 100,00 %
02.02.2020 20:22 11,6 C 11,1 C 10,0 C 89 % 1010,4 hPa 0,0 l/m 0 min 0 min 0 W/m 22,5 km/h (4 Bft) 100,00 %
02.02.2020 20:24 11,6 C 11,1 C 10,0 C 89 % 1010,4 hPa 0,0 l/m 0 min 0 min 0 W/m 16,1 km/h (3 Bft) 100,00 %
02.02.2020 20:26 11,6 C 10,6 C 10,0 C 89 % 1010,3 hPa 0,0 l/m 0 min 0 min 0 W/m 16,1 km/h (3 Bft) 97,87 %
02.02.2020 20:28 11,6 C 10,6 C 10,0 C 89 % 1010,3 hPa 0,0 l/m 0 min 0 min 0 W/m 19,3 km/h (3 Bft) 100,00 %
02.02.2020 20:30 11,6 C 10,6 C 10,0 C 89 % 1010,4 hPa 0,0 l/m 0 min 0 min 0 W/m 35,4 km/h (5 Bft) 100,00 %
02.02.2020 20:32 11,6 C 11,1 C 10,0 C 89 % 1010,4 hPa 0,0 l/m 0 min 0 min 0 W/m 25,7 km/h (4 Bft) 97,87 %
02.02.2020 20:34 11,6 C 10,6 C 10,0 C 89 % 1010,5 hPa 0,0 l/m 0 min 0 min 0 W/m 12,9 km/h (3 Bft) 100,00 %
02.02.2020 20:36 11,6 C 10,6 C 10,0 C 89 % 1010,5 hPa 0,0 l/m 0 min 0 min 0 W/m 16,1 km/h (3 Bft) 100,00 %
02.02.2020 20:38 11,6 C 10,6 C 10,0 C 89 % 1010,5 hPa 0,0 l/m 0 min 0 min 0 W/m 16,1 km/h (3 Bft) 100,00 %
02.02.2020 20:40 11,6 C 10,6 C 10,0 C 89 % 1010,6 hPa 0,0 l/m 0 min 0 min 0 W/m 12,9 km/h (3 Bft) 100,00 %
02.02.2020 20:42 11,6 C 10,6 C 10,0 C 89 % 1010,6 hPa 0,0 l/m 0 min 0 min 0 W/m 19,3 km/h (3 Bft) 97,87 %
02.02.2020 20:44 11,5 C 10,6 C 10,0 C 89 % 1010,6 hPa 0,0 l/m 0 min 0 min 0 W/m 16,1 km/h (3 Bft) 97,87 %
02.02.2020 20:46 11,5 C 10,6 C 10,0 C 89 % 1010,7 hPa 0,0 l/m 0 min 0 min 0 W/m 25,7 km/h (4 Bft) 100,00 %
02.02.2020 20:48 11,5 C 10,6 C 10,0 C 89 % 1010,7 hPa 0,0 l/m 0 min 0 min 0 W/m 16,1 km/h (3 Bft) 97,87 %
02.02.2020 20:50 11,5 C 10,6 C 10,0 C 89 % 1010,8 hPa 0,0 l/m 0 min 0 min 0 W/m 16,1 km/h (3 Bft) 93,62 %
02.02.2020 20:52 11,5 C 10,6 C 10,0 C 89 % 1010,8 hPa 0,0 l/m 0 min 0 min 0 W/m 25,7 km/h (4 Bft) 97,87 %
02.02.2020 20:54 11,5 C 10,6 C 10,0 C 89 % 1010,7 hPa 0,0 l/m 0 min 0 min 0 W/m 16,1 km/h (3 Bft) 97,87 %
02.02.2020 20:56 11,5 C 10,6 C 10,0 C 89 % 1010,7 hPa 0,0 l/m 0 min 0 min 0 W/m 12,9 km/h (3 Bft) 97,83 %
02.02.2020 20:58 11,5 C 10,6 C 10,0 C 89 % 1010,7 hPa 0,0 l/m 0 min 0 min 0 W/m 16,1 km/h (3 Bft) 95,74 %
02.02.2020 21:00 11,4 C 10,6 C 10,0 C 89 % 1010,8 hPa 0,0 l/m 0 min 0 min 0 W/m 19,3 km/h (3 Bft) 95,74 %
02.02.2020 21:02 11,4 C 10,6 C 10,0 C 89 % 1010,8 hPa 0,0 l/m 0 min 0 min 0 W/m 9,7 km/h (2 Bft) 89,36 %
02.02.2020 21:04 11,4 C 10,6 C 10,0 C 89 % 1010,8 hPa 0,0 l/m 0 min 0 min 0 W/m 16,1 km/h (3 Bft) 93,62 %
02.02.2020 21:06 11,4 C 10,6 C 10,0 C 89 % 1010,8 hPa 0,0 l/m 0 min 0 min 0 W/m 16,1 km/h (3 Bft) 95,65 %
02.02.2020 21:08 11,4 C 10,6 C 10,0 C 89 % 1010,8 hPa 0,0 l/m 0 min 0 min 0 W/m 16,1 km/h (3 Bft) 93,62 %
02.02.2020 21:10 11,4 C 10,6 C 10,0 C 89 % 1010,8 hPa 0,0 l/m 0 min 0 min 0 W/m 19,3 km/h (3 Bft) 91,49 %
02.02.2020 21:12 11,4 C 10,6 C 10,0 C 89 % 1010,7 hPa 0,0 l/m 0 min 0 min 0 W/m 16,1 km/h (3 Bft) 91,49 %
02.02.2020 21:14 11,4 C 10,6 C 10,0 C 89 % 1010,8 hPa 0,0 l/m 0 min 0 min 0 W/m 19,3 km/h (3 Bft) 91,49 %
02.02.2020 21:16 11,3 C 10,6 C 10,0 C 89 % 1010,7 hPa 0,0 l/m 0 min 0 min 0 W/m 19,3 km/h (3 Bft) 93,62 %
02.02.2020 21:18 11,3 C 10,6 C 10,0 C 89 % 1010,7 hPa 0,0 l/m 0 min 0 min 0 W/m 16,1 km/h (3 Bft) 93,62 %
02.02.2020 21:20 11,3 C 10,6 C 10,0 C 89 % 1010,7 hPa 0,0 l/m 0 min 0 min 0 W/m 22,5 km/h (4 Bft) 93,48 %
02.02.2020 21:22 11,3 C 10,6 C 10,0 C 89 % 1010,7 hPa 0,0 l/m 0 min 0 min 0 W/m 16,1 km/h (3 Bft) 93,62 %
02.02.2020 21:24 11,3 C 10,6 C 10,0 C 89 % 1010,7 hPa 0,0 l/m 0 min 0 min 0 W/m 12,9 km/h (3 Bft) 93,62 %
02.02.2020 21:26 11,3 C 10,6 C 10,0 C 89 % 1010,7 hPa 0,0 l/m 0 min 0 min 0 W/m 22,5 km/h (4 Bft) 93,62 %
02.02.2020 21:28 11,3 C 10,6 C 10,0 C 89 % 1010,6 hPa 0,0 l/m 0 min 0 min 0 W/m 12,9 km/h (3 Bft) 91,49 %
02.02.2020 21:30 11,3 C 10,6 C 10,0 C 89 % 1010,7 hPa 0,0 l/m 0 min 0 min 0 W/m 19,3 km/h (3 Bft) 93,48 %
02.02.2020 21:32 11,3 C 10,6 C 10,0 C 89 % 1010,7 hPa 0,0 l/m 0 min 0 min 0 W/m 38,6 km/h (5 Bft) 95,74 %
02.02.2020 21:34 11,3 C 10,6 C 10,0 C 89 % 1010,6 hPa 0,0 l/m 0 min 0 min 0 W/m 12,9 km/h (3 Bft) 93,62 %
02.02.2020 21:36 11,2 C 10,6 C 10,0 C 89 % 1010,7 hPa 0,0 l/m 0 min 0 min 0 W/m 19,3 km/h (3 Bft) 91,49 %
02.02.2020 21:38 11,2 C 10,6 C 10,0 C 89 % 1010,7 hPa 0,0 l/m 0 min 0 min 0 W/m 19,3 km/h (3 Bft) 93,62 %
02.02.2020 21:40 11,2 C 10,6 C 10,0 C 89 % 1010,8 hPa 0,0 l/m 0 min 0 min 0 W/m 12,9 km/h (3 Bft) 93,62 %
02.02.2020 21:42 11,2 C 10,6 C 10,0 C 89 % 1010,8 hPa 0,0 l/m 0 min 0 min 0 W/m 16,1 km/h (3 Bft) 93,48 %
02.02.2020 21:44 11,2 C 10,6 C 10,0 C 89 % 1010,8 hPa 0,0 l/m 0 min 0 min 0 W/m 22,5 km/h (4 Bft) 95,74 %
02.02.2020 21:46 11,2 C 10,6 C 10,0 C 89 % 1010,7 hPa 0,0 l/m 0 min 0 min 0 W/m 16,1 km/h (3 Bft) 100,00 %
02.02.2020 21:48 11,2 C 10,6 C 10,0 C 89 % 1010,7 hPa 0,0 l/m 0 min 0 min 0 W/m 25,7 km/h (4 Bft) 100,00 %
02.02.2020 21:50 11,2 C 10,6 C 10,0 C 89 % 1010,7 hPa 0,0 l/m 0 min 0 min 0 W/m 19,3 km/h (3 Bft) 100,00 %
02.02.2020 21:52 11,2 C 10,6 C 9,4 C 89 % 1010,8 hPa 0,0 l/m 0 min 0 min 0 W/m 19,3 km/h (3 Bft) 100,00 %
02.02.2020 21:54 11,2 C 10,6 C 9,4 C 89 % 1010,7 hPa 0,0 l/m 0 min 0 min 0 W/m 16,1 km/h (3 Bft) 100,00 %
02.02.2020 21:56 11,2 C 10,6 C 9,4 C 89 % 1010,7 hPa 0,0 l/m 0 min 0 min 0 W/m 19,3 km/h (3 Bft) 100,00 %
02.02.2020 21:58 11,2 C 10,6 C 9,4 C 89 % 1010,8 hPa 0,0 l/m 0 min 0 min 0 W/m 16,1 km/h (3 Bft) 100,00 %
02.02.2020 22:00 11,2 C 10,6 C 9,4 C 89 % 1010,7 hPa 0,0 l/m 0 min 0 min 0 W/m 19,3 km/h (3 Bft) 100,00 %
02.02.2020 22:02 11,2 C 10,6 C 9,4 C 89 % 1010,7 hPa 0,0 l/m 0 min 0 min 0 W/m 12,9 km/h (3 Bft) 100,00 %
02.02.2020 22:04 11,2 C 10,6 C 9,4 C 89 % 1010,8 hPa 0,0 l/m 0 min 0 min 0 W/m 19,3 km/h (3 Bft) 100,00 %
02.02.2020 22:06 11,2 C 10,6 C 9,4 C 89 % 1010,7 hPa 0,0 l/m 0 min 0 min 0 W/m 12,9 km/h (3 Bft) 100,00 %
02.02.2020 22:08 11,1 C 10,6 C 9,4 C 89 % 1010,9 hPa 0,0 l/m 0 min 0 min 0 W/m 22,5 km/h (4 Bft) 100,00 %
02.02.2020 22:10 11,1 C 10,6 C 10,0 C 89 % 1010,8 hPa 0,0 l/m 0 min 0 min 0 W/m 32,2 km/h (5 Bft) 100,00 %
02.02.2020 22:12 11,1 C 10,6 C 9,4 C 89 % 1010,9 hPa 0,0 l/m 0 min 0 min 0 W/m 22,5 km/h (4 Bft) 100,00 %
02.02.2020 22:14 11,1 C 10,6 C 9,4 C 89 % 1010,8 hPa 0,0 l/m 0 min 0 min 0 W/m 16,1 km/h (3 Bft) 100,00 %
02.02.2020 22:16 11,1 C 10,6 C 9,4 C 89 % 1010,8 hPa 0,0 l/m 0 min 0 min 0 W/m 19,3 km/h (3 Bft) 100,00 %
02.02.2020 22:18 11,1 C 10,6 C 9,4 C 89 % 1010,8 hPa 0,0 l/m 0 min 0 min 0 W/m 12,9 km/h (3 Bft) 100,00 %
02.02.2020 22:20 11,1 C 10,0 C 9,4 C 89 % 1010,8 hPa 0,0 l/m 0 min 0 min 0 W/m 19,3 km/h (3 Bft) 100,00 %
02.02.2020 22:22 11,1 C 10,6 C 9,4 C 89 % 1010,8 hPa 0,0 l/m 0 min 0 min 0 W/m 16,1 km/h (3 Bft) 97,87 %
02.02.2020 22:24 11,1 C 10,0 C 9,4 C 89 % 1010,7 hPa 0,0 l/m 0 min 0 min 0 W/m 16,1 km/h (3 Bft) 100,00 %
02.02.2020 22:26 11,1 C 10,0 C 9,4 C 89 % 1010,7 hPa 0,0 l/m 0 min 0 min 0 W/m 25,7 km/h (4 Bft) 100,00 %
02.02.2020 22:28 11,1 C 10,6 C 9,4 C 89 % 1010,7 hPa 0,0 l/m 0 min 0 min 0 W/m 22,5 km/h (4 Bft) 97,83 %
02.02.2020 22:30 11,1 C 10,0 C 9,4 C 89 % 1010,6 hPa 0,0 l/m 0 min 0 min 0 W/m 16,1 km/h (3 Bft) 97,87 %
02.02.2020 22:32 11,1 C 10,6 C 9,4 C 89 % 1010,7 hPa 0,0 l/m 0 min 0 min 0 W/m 16,1 km/h (3 Bft) 100,00 %
02.02.2020 22:34 11,1 C 10,6 C 9,4 C 89 % 1010,6 hPa 0,0 l/m 0 min 0 min 0 W/m 12,9 km/h (3 Bft) 100,00 %
02.02.2020 22:36 11,1 C 10,0 C 9,4 C 89 % 1010,6 hPa 0,0 l/m 0 min 0 min 0 W/m 16,1 km/h (3 Bft) 97,87 %
02.02.2020 22:38 11,0 C 10,0 C 9,4 C 89 % 1010,7 hPa 0,0 l/m 0 min 0 min 0 W/m 12,9 km/h (3 Bft) 100,00 %
02.02.2020 22:40 11,0 C 10,0 C 9,4 C 90 % 1010,7 hPa 0,0 l/m 0 min 0 min 0 W/m 16,1 km/h (3 Bft) 100,00 %
02.02.2020 22:42 11,0 C 10,0 C 9,4 C 90 % 1010,6 hPa 0,0 l/m 0 min 0 min 0 W/m 22,5 km/h (4 Bft) 100,00 %
02.02.2020 22:44 11,0 C 10,0 C 9,4 C 90 % 1010,7 hPa 0,0 l/m 0 min 0 min 0 W/m 19,3 km/h (3 Bft) 100,00 %
02.02.2020 22:46 10,9 C 10,0 C 9,4 C 90 % 1010,6 hPa 0,0 l/m 0 min 0 min 0 W/m 19,3 km/h (3 Bft) 100,00 %
02.02.2020 22:48 10,9 C 10,0 C 9,4 C 90 % 1010,6 hPa 0,0 l/m 0 min 0 min 0 W/m 12,9 km/h (3 Bft) 100,00 %
02.02.2020 22:50 10,9 C 10,0 C 9,4 C 90 % 1010,5 hPa 0,0 l/m 0 min 0 min 0 W/m 9,7 km/h (2 Bft) 100,00 %
02.02.2020 22:52 10,9 C 10,0 C 9,4 C 90 % 1010,6 hPa 0,0 l/m 0 min 0 min 0 W/m 29,0 km/h (5 Bft) 100,00 %
02.02.2020 22:54 10,9 C 10,0 C 9,4 C 90 % 1010,6 hPa 0,0 l/m 0 min 0 min 0 W/m 19,3 km/h (3 Bft) 100,00 %
02.02.2020 22:56 10,9 C 10,0 C 9,4 C 90 % 1010,6 hPa 0,0 l/m 0 min 0 min 0 W/m 16,1 km/h (3 Bft) 100,00 %
02.02.2020 22:58 10,9 C 10,0 C 9,4 C 90 % 1010,6 hPa 0,0 l/m 0 min 0 min 0 W/m 12,9 km/h (3 Bft) 100,00 %
02.02.2020 23:00 10,9 C 10,0 C 9,4 C 90 % 1010,5 hPa 0,0 l/m 0 min 0 min 0 W/m 19,3 km/h (3 Bft) 100,00 %
02.02.2020 23:02 10,9 C 10,0 C 9,4 C 90 % 1010,5 hPa 0,0 l/m 0 min 0 min 0 W/m 12,9 km/h (3 Bft) 100,00 %
02.02.2020 23:04 10,9 C 10,0 C 9,4 C 90 % 1010,5 hPa 0,0 l/m 0 min 0 min 0 W/m 22,5 km/h (4 Bft) 97,83 %
02.02.2020 23:06 10,9 C 10,0 C 9,4 C 90 % 1010,5 hPa 0,0 l/m 0 min 0 min 0 W/m 16,1 km/h (3 Bft) 100,00 %
02.02.2020 23:08 10,8 C 10,0 C 9,4 C 90 % 1010,4 hPa 0,0 l/m 0 min 0 min 0 W/m 12,9 km/h (3 Bft) 100,00 %
02.02.2020 23:10 10,9 C 10,0 C 9,4 C 90 % 1010,5 hPa 0,0 l/m 0 min 0 min 0 W/m 12,9 km/h (3 Bft) 100,00 %
02.02.2020 23:12 10,8 C 10,0 C 9,4 C 90 % 1010,5 hPa 0,0 l/m 0 min 0 min 0 W/m 9,7 km/h (2 Bft) 97,87 %
02.02.2020 23:14 10,8 C 10,0 C 9,4 C 89 % 1010,6 hPa 0,0 l/m 0 min 0 min 0 W/m 16,1 km/h (3 Bft) 97,87 %
02.02.2020 23:16 10,8 C 10,0 C 9,4 C 89 % 1010,6 hPa 0,0 l/m 0 min 0 min 0 W/m 12,9 km/h (3 Bft) 100,00 %
02.02.2020 23:18 10,8 C 10,0 C 9,4 C 89 % 1010,6 hPa 0,0 l/m 0 min 0 min 0 W/m 19,3 km/h (3 Bft) 97,87 %
02.02.2020 23:20 10,8 C 10,0 C 9,4 C 89 % 1010,5 hPa 0,0 l/m 0 min 0 min 0 W/m 22,5 km/h (4 Bft) 100,00 %
02.02.2020 23:22 10,8 C 10,0 C 9,4 C 89 % 1010,5 hPa 0,0 l/m 0 min 0 min 0 W/m 16,1 km/h (3 Bft) 100,00 %
02.02.2020 23:24 10,8 C 10,0 C 9,4 C 89 % 1010,4 hPa 0,0 l/m 0 min 0 min 0 W/m 19,3 km/h (3 Bft) 100,00 %
02.02.2020 23:26 10,8 C 10,0 C 9,4 C 89 % 1010,4 hPa 0,0 l/m 0 min 0 min 0 W/m 16,1 km/h (3 Bft) 100,00 %
02.02.2020 23:28 10,8 C 10,0 C 9,4 C 89 % 1010,3 hPa 0,0 l/m 0 min 0 min 0 W/m 32,2 km/h (5 Bft) 97,83 %
02.02.2020 23:30 10,8 C 10,0 C 9,4 C 89 % 1010,0 hPa 0,0 l/m 0 min 0 min 0 W/m 22,5 km/h (4 Bft) 100,00 %
02.02.2020 23:32 10,8 C 10,0 C 9,4 C 89 % 1010,0 hPa 0,0 l/m 0 min 0 min 0 W/m 19,3 km/h (3 Bft) 100,00 %
02.02.2020 23:34 10,8 C 10,0 C 9,4 C 89 % 1010,1 hPa 0,0 l/m 0 min 0 min 0 W/m 25,7 km/h (4 Bft) 95,74 %
02.02.2020 23:36 10,8 C 10,0 C 9,4 C 90 % 1010,2 hPa 0,0 l/m 0 min 0 min 0 W/m 22,5 km/h (4 Bft) 95,74 %
02.02.2020 23:38 10,8 C 10,0 C 9,4 C 90 % 1010,1 hPa 0,0 l/m 0 min 0 min 0 W/m 16,1 km/h (3 Bft) 95,65 %
02.02.2020 23:40 10,8 C 10,0 C 9,4 C 90 % 1010,1 hPa 0,0 l/m 0 min 0 min 0 W/m 22,5 km/h (4 Bft) 97,87 %
02.02.2020 23:42 10,8 C 10,0 C 9,4 C 90 % 1010,0 hPa 0,0 l/m 0 min 0 min 0 W/m 22,5 km/h (4 Bft) 97,87 %
02.02.2020 23:44 10,8 C 10,0 C 9,4 C 90 % 1009,9 hPa 0,0 l/m 0 min 0 min 0 W/m 29,0 km/h (5 Bft) 97,87 %
02.02.2020 23:46 10,8 C 10,0 C 9,4 C 90 % 1009,8 hPa 0,0 l/m 0 min 0 min 0 W/m 16,1 km/h (3 Bft) 93,62 %
02.02.2020 23:48 10,8 C 10,6 C 9,4 C 90 % 1009,9 hPa 0,0 l/m 0 min 0 min 0 W/m 32,2 km/h (5 Bft) 95,74 %
02.02.2020 23:50 10,8 C 10,6 C 9,4 C 89 % 1009,9 hPa 0,0 l/m 0 min 0 min 0 W/m 29,0 km/h (5 Bft) 95,65 %
02.02.2020 23:52 10,9 C 10,0 C 9,4 C 89 % 1010,0 hPa 0,0 l/m 0 min 0 min 0 W/m 25,7 km/h (4 Bft) 95,74 %
02.02.2020 23:54 10,9 C 10,0 C 9,4 C 89 % 1010,0 hPa 0,0 l/m 0 min 0 min 0 W/m 22,5 km/h (4 Bft) 93,62 %
02.02.2020 23:56 10,9 C 10,0 C 9,4 C 89 % 1009,9 hPa 0,0 l/m 0 min 0 min 0 W/m 16,1 km/h (3 Bft) 95,74 %
02.02.2020 23:58 10,9 C 10,0 C 9,4 C 89 % 1010,1 hPa 0,0 l/m 0 min 0 min 0 W/m 16,1 km/h (3 Bft) 95,74 %
_ Min-Zeit 10:30 09:48 08:16 02:30 13:30 - - - - 11:38 02:52
Minimum _ 6,4 C 5,0 C 5,0 C 87 % 1004,0 hPa - - - - 0,0 km/h (0 Bft) 55,56 %
_ Max-Zeit 17:10 15:56 17:16 13:14 03:02 08:24 00:00 12:07 13:06 17:34 00:00
Maximum _ 12,4 C 12,2 C 11,1 C 100 % 1012,0 hPa 0,2 l/m 0 min 3 min 90 W/m 45,1 km/h
W-NW (6 Bft)
100,00 %
Durchschnitt _ 9,3 C 8,6 C 7,9 C 92 % 1009,1 hPa #5,0 l/m #0 min. #4:46 h 36 W/m 18,6 km/h (3 Bft) 97,43 %
© 2020 W. Hausmann